Time,TemperatureF,DewpointF,PressureIn,WindDirection,WindDirectionDegrees,WindSpeedMPH,WindSpeedGustMPH,Humidity,HourlyPrecipIn,Conditions,Clouds,dailyrainin,SoftwareType,DateUTC
2013-03-04 00:00:00,21.3,-99.9,-100.00,WSW,238,0.0,3.1,-999,0.00,,---,0.00,VWS V14.01,2013-03-04 05:00:00,
2013-03-04 00:01:00,18.4,-99.9,-100.00,NW,307,0.0,0.0,-999,0.00,,---,0.00,VWS V14.01,2013-03-04 05:01:00,
2013-03-04 00:02:00,18.7,-99.9,-100.00,NW,307,0.0,0.0,-999,0.00,,---,0.00,VWS V14.01,2013-03-04 05:02:00,
2013-03-04 00:03:00,18.2,-99.9,-100.00,NW,307,0.0,0.0,-999,54.59,,---,0.00,VWS V14.01,2013-03-04 05:03:00,
2013-03-04 00:04:00,18.4,-99.9,-100.00,NW,307,0.0,0.0,-999,0.00,,---,0.00,VWS V14.01,2013-03-04 05:04:00,
2013-03-04 00:05:00,22.1,-99.9,-100.00,WSW,238,0.0,0.0,-999,0.00,,---,0.00,VWS V14.01,2013-03-04 05:05:00,
2013-03-04 00:06:00,18.4,-99.9,-100.00,NW,307,0.0,0.0,-999,0.00,,---,0.00,VWS V14.01,2013-03-04 05:06:00,
2013-03-04 00:07:00,18.4,-99.9,-100.00,NW,307,0.0,0.0,-999,0.00,,---,0.00,VWS V14.01,2013-03-04 05:07:00,
2013-03-04 00:08:00,18.4,-99.9,-100.00,NW,307,0.0,0.0,-999,0.00,,---,0.00,VWS V14.01,2013-03-04 05:08:00,
2013-03-04 00:09:00,18.4,-99.9,-100.00,NW,307,0.0,0.0,-999,0.00,,---,0.00,VWS V14.01,2013-03-04 05:09:00,
2013-03-04 00:10:00,21.5,-99.9,-100.00,WSW,238,0.0,0.0,-999,0.00,,---,0.00,VWS V14.01,2013-03-04 05:10:00,
2013-03-04 00:11:00,18.2,-99.9,-100.00,NW,307,0.0,0.0,-999,0.00,,---,0.00,VWS V14.01,2013-03-04 05:11:00,
2013-03-04 00:12:00,18.7,-99.9,-100.00,NW,307,0.0,0.0,-999,0.00,,---,0.00,VWS V14.01,2013-03-04 05:12:00,
2013-03-04 00:13:00,18.7,-99.9,-100.00,NW,307,0.0,0.0,-999,0.00,,---,0.00,VWS V14.01,2013-03-04 05:13:00,
2013-03-04 00:14:00,18.2,-99.9,-100.00,NW,307,0.0,0.0,-999,0.00,,---,0.00,VWS V14.01,2013-03-04 05:14:00,
2013-03-04 00:15:00,21.8,-99.9,-100.00,WSW,238,0.0,0.0,-999,0.00,,---,0.00,VWS V14.01,2013-03-04 05:15:00,
2013-03-04 00:16:00,18.4,-99.9,-100.00,NW,307,0.0,0.0,-999,0.00,,---,0.00,VWS V14.01,2013-03-04 05:16:00,
2013-03-04 00:17:00,18.2,-99.9,-100.00,NW,307,0.0,0.0,-999,0.00,,---,0.00,VWS V14.01,2013-03-04 05:17:00,
2013-03-04 00:18:00,18.7,-99.9,-100.00,NW,307,0.0,0.0,-999,0.00,,---,0.00,VWS V14.01,2013-03-04 05:18:00,
2013-03-04 00:19:00,18.4,-99.9,-100.00,NW,307,0.0,0.0,-999,0.00,,---,0.00,VWS V14.01,2013-03-04 05:19:00,
2013-03-04 00:20:00,21.5,-99.9,-100.00,WSW,238,0.0,0.0,-999,0.00,,---,0.00,VWS V14.01,2013-03-04 05:20:00,
2013-03-04 00:21:00,18.4,-99.9,-100.00,NW,307,0.0,0.0,-999,0.00,,---,0.00,VWS V14.01,2013-03-04 05:21:00,
2013-03-04 00:22:00,18.7,-99.9,-100.00,NW,307,0.0,0.0,-999,0.00,,---,0.00,VWS V14.01,2013-03-04 05:22:00,
2013-03-04 00:23:00,19.0,-99.9,-100.00,NW,307,0.0,0.0,-999,0.00,,---,0.00,VWS V14.01,2013-03-04 05:23:00,
2013-03-04 00:24:00,18.2,-99.9,-100.00,NW,307,0.0,0.0,-999,0.00,,---,0.00,VWS V14.01,2013-03-04 05:24:00,
2013-03-04 00:25:00,21.5,-99.9,-100.00,WSW,238,0.0,0.0,-999,0.00,,---,0.00,VWS V14.01,2013-03-04 05:25:00,
2013-03-04 00:26:00,21.5,-99.9,-100.00,WSW,238,0.0,0.0,-999,0.00,,---,0.00,VWS V14.01,2013-03-04 05:26:00,
2013-03-04 00:27:00,18.2,-99.9,-100.00,NW,307,0.0,0.0,-999,54.59,,---,0.00,VWS V14.01,2013-03-04 05:27:00,
2013-03-04 00:28:00,18.2,-99.9,-100.00,NW,307,0.0,0.0,-999,0.00,,---,0.00,VWS V14.01,2013-03-04 05:28:00,
2013-03-04 00:29:00,17.9,-99.9,-100.00,NW,307,0.0,0.0,-999,0.00,,---,0.00,VWS V14.01,2013-03-04 05:29:00,
2013-03-04 00:30:00,21.8,-99.9,-100.00,WSW,238,0.0,0.0,-999,0.00,,---,0.00,VWS V14.01,2013-03-04 05:30:00,
2013-03-04 00:31:00,22.1,-99.9,-100.00,WSW,238,0.0,0.0,-999,0.00,,---,0.00,VWS V14.01,2013-03-04 05:31:00,
2013-03-04 00:32:00,18.2,-99.9,-100.00,NW,307,0.0,0.0,-999,0.00,,---,0.00,VWS V14.01,2013-03-04 05:32:00,
2013-03-04 00:33:00,17.6,-99.9,-100.00,NW,307,0.0,0.0,-999,0.00,,---,0.00,VWS V14.01,2013-03-04 05:33:00,
2013-03-04 00:34:00,18.2,-99.9,-100.00,NW,307,0.0,0.0,-999,0.00,,---,0.00,VWS V14.01,2013-03-04 05:34:00,
2013-03-04 00:35:00,21.8,-99.9,-100.00,WSW,238,0.0,0.0,-999,0.00,,---,0.00,VWS V14.01,2013-03-04 05:35:00,
2013-03-04 00:36:00,21.5,-99.9,-100.00,WSW,238,0.0,0.0,-999,0.00,,---,0.00,VWS V14.01,2013-03-04 05:36:00,
2013-03-04 00:37:00,18.2,-99.9,-100.00,NW,307,0.0,0.0,-999,0.00,,---,0.00,VWS V14.01,2013-03-04 05:37:00,
2013-03-04 00:38:00,18.2,-99.9,-100.00,NW,307,0.0,0.0,-999,0.00,,---,0.00,VWS V14.01,2013-03-04 05:38:00,
2013-03-04 00:39:00,18.2,-99.9,-100.00,NW,307,0.0,0.0,-999,54.59,,---,0.00,VWS V14.01,2013-03-04 05:39:00,
2013-03-04 00:40:00,21.5,-99.9,-100.00,WSW,238,0.0,0.0,-999,0.00,,---,0.00,VWS V14.01,2013-03-04 05:40:00,
2013-03-04 00:41:00,21.5,-99.9,-100.00,WSW,238,0.0,0.0,-999,0.00,,---,0.00,VWS V14.01,2013-03-04 05:41:00,
2013-03-04 00:42:00,17.9,-99.9,-100.00,NW,307,0.0,0.0,-999,0.00,,---,0.00,VWS V14.01,2013-03-04 05:42:00,
2013-03-04 00:43:00,17.6,-99.9,-100.00,NW,307,0.0,0.0,-999,0.00,,---,0.00,VWS V14.01,2013-03-04 05:43:00,
2013-03-04 00:44:00,18.2,-99.9,-100.00,NW,307,0.0,0.0,-999,41.31,,---,0.00,VWS V14.01,2013-03-04 05:44:00,
2013-03-04 00:45:00,21.3,-99.9,-100.00,WSW,238,0.0,0.0,-999,0.00,,---,0.00,VWS V14.01,2013-03-04 05:45:00,
2013-03-04 00:46:00,21.3,-99.9,-100.00,WSW,238,0.0,0.0,-999,0.00,,---,0.00,VWS V14.01,2013-03-04 05:46:00,
2013-03-04 00:47:00,17.9,-99.9,-100.00,NW,307,0.0,0.0,-999,0.00,,---,0.00,VWS V14.01,2013-03-04 05:47:00,
2013-03-04 00:48:00,17.9,-99.9,-100.00,NW,307,0.0,0.0,-999,0.00,,---,0.00,VWS V14.01,2013-03-04 05:48:00,
2013-03-04 00:49:00,17.9,-99.9,-100.00,NW,307,0.0,0.0,-999,0.00,,---,0.00,VWS V14.01,2013-03-04 05:49:00,
2013-03-04 00:50:00,17.9,-99.9,-100.00,NW,307,0.0,0.0,-999,0.00,,---,0.00,VWS V14.01,2013-03-04 05:50:00,
2013-03-04 00:51:00,21.5,-99.9,-100.00,WSW,238,0.0,0.0,-999,0.00,,---,0.00,VWS V14.01,2013-03-04 05:51:00,
2013-03-04 00:52:00,17.6,-99.9,-100.00,NW,307,0.0,0.0,-999,0.00,,---,0.00,VWS V14.01,2013-03-04 05:52:00,
2013-03-04 00:53:00,17.3,-99.9,-100.00,NW,307,0.0,0.0,-999,0.00,,---,0.00,VWS V14.01,2013-03-04 05:53:00,
2013-03-04 00:54:00,17.3,-99.9,-100.00,NW,307,0.0,0.0,-999,0.00,,---,0.00,VWS V14.01,2013-03-04 05:54:00,
2013-03-04 00:55:00,17.3,-99.9,-100.00,NW,307,0.0,0.0,-999,0.00,,---,0.00,VWS V14.01,2013-03-04 05:55:00,
2013-03-04 00:56:00,21.5,-99.9,-100.00,WSW,238,0.0,0.0,-999,0.00,,---,0.00,VWS V14.01,2013-03-04 05:56:00,
2013-03-04 00:57:00,21.5,-99.9,-100.00,WSW,238,0.0,0.0,-999,0.00,,---,0.00,VWS V14.01,2013-03-04 05:57:00,
2013-03-04 00:58:00,17.9,-99.9,-100.00,NW,307,0.0,0.0,-999,0.00,,---,0.00,VWS V14.01,2013-03-04 05:58:00,
2013-03-04 01:01:00,21.3,-99.9,-100.00,WSW,238,0.0,0.0,-999,0.00,,---,0.00,VWS V14.01,2013-03-04 06:01:00,
2013-03-04 01:02:00,21.5,-99.9,-100.00,WSW,238,0.0,0.0,-999,0.00,,---,0.00,VWS V14.01,2013-03-04 06:02:00,
2013-03-04 01:06:00,21.5,-99.9,-100.00,WSW,238,0.0,0.0,-999,54.88,,---,0.00,VWS V14.01,2013-03-04 06:06:00,
2013-03-04 01:07:00,21.5,-99.9,-100.00,WSW,238,0.0,0.0,-999,0.00,,---,0.00,VWS V14.01,2013-03-04 06:07:00,
2013-03-04 01:11:00,21.3,-99.9,-100.00,WSW,238,0.0,0.0,-999,0.00,,---,0.00,VWS V14.01,2013-03-04 06:11:00,
2013-03-04 01:12:00,21.3,-99.9,-100.00,WSW,238,0.0,0.0,-999,54.88,,---,0.00,VWS V14.01,2013-03-04 06:12:00,
2013-03-04 01:16:00,21.3,-99.9,-100.00,WSW,238,0.0,0.0,-999,26.41,,---,0.00,VWS V14.01,2013-03-04 06:16:00,
2013-03-04 01:17:00,21.0,-99.9,-100.00,WSW,238,0.0,0.0,-999,26.41,,---,0.00,VWS V14.01,2013-03-04 06:17:00,
2013-03-04 01:18:00,21.0,-99.9,-100.00,WSW,238,0.0,0.0,-999,54.88,,---,0.00,VWS V14.01,2013-03-04 06:18:00,
2013-03-04 01:21:00,21.3,-99.9,-100.00,WSW,238,0.0,0.0,-999,0.00,,---,0.00,VWS V14.01,2013-03-04 06:21:00,
2013-03-04 01:22:00,21.5,-99.9,-100.00,WSW,238,0.0,0.0,-999,0.00,,---,0.00,VWS V14.01,2013-03-04 06:22:00,
2013-03-04 01:23:00,21.0,-99.9,-100.00,WSW,238,0.0,0.0,-999,0.00,,---,0.00,VWS V14.01,2013-03-04 06:23:00,
2013-03-04 01:26:00,21.3,-99.9,-100.00,WSW,238,0.0,0.0,-999,0.00,,---,0.00,VWS V14.01,2013-03-04 06:26:00,
2013-03-04 01:27:00,21.5,-99.9,-100.00,WSW,238,0.0,0.0,-999,0.00,,---,0.00,VWS V14.01,2013-03-04 06:27:00,
2013-03-04 01:28:00,21.0,-99.9,-100.00,WSW,238,0.0,0.0,-999,26.41,,---,0.00,VWS V14.01,2013-03-04 06:28:00,
2013-03-04 01:31:00,21.0,-99.9,-100.00,WSW,238,0.0,0.0,-999,0.93,,---,0.00,VWS V14.01,2013-03-04 06:31:00,
2013-03-04 01:32:00,20.8,-99.9,-100.00,WSW,238,0.0,0.0,-999,0.00,,---,0.00,VWS V14.01,2013-03-04 06:32:00,
2013-03-04 01:33:00,21.3,-99.9,-100.00,WSW,238,0.0,0.0,-999,0.00,,---,0.00,VWS V14.01,2013-03-04 06:33:00,
2013-03-04 01:36:00,21.3,-99.9,-100.00,WSW,238,0.0,0.0,-999,41.76,,---,0.00,VWS V14.01,2013-03-04 06:36:00,
2013-03-04 01:37:00,21.3,-99.9,-100.00,WSW,238,0.0,0.0,-999,0.00,,---,0.00,VWS V14.01,2013-03-04 06:37:00,
2013-03-04 01:38:00,21.5,-99.9,-100.00,WSW,238,0.0,0.0,-999,0.00,,---,0.00,VWS V14.01,2013-03-04 06:38:00,
2013-03-04 01:41:00,21.0,-99.9,-100.00,WSW,238,0.0,0.0,-999,0.00,,---,0.00,VWS V14.01,2013-03-04 06:41:00,
2013-03-04 01:42:00,21.3,-99.9,-100.00,WSW,238,0.0,0.0,-999,0.00,,---,0.00,VWS V14.01,2013-03-04 06:42:00,
2013-03-04 01:43:00,21.5,-99.9,-100.00,WSW,238,0.0,0.0,-999,0.93,,---,0.00,VWS V14.01,2013-03-04 06:43:00,
2013-03-04 01:46:00,21.3,-99.9,-100.00,WSW,238,0.0,0.0,-999,0.00,,---,0.00,VWS V14.01,2013-03-04 06:46:00,
2013-03-04 01:47:00,21.0,-99.9,-100.00,WSW,238,0.0,0.0,-999,0.00,,---,0.00,VWS V14.01,2013-03-04 06:47:00,
2013-03-04 01:48:00,21.0,-99.9,-100.00,WSW,238,0.0,0.0,-999,41.76,,---,0.00,VWS V14.01,2013-03-04 06:48:00,
2013-03-04 01:51:00,21.3,-99.9,-100.00,WNW,302,0.0,0.0,-999,33.47,,---,0.00,VWS V14.01,2013-03-04 06:51:00,
2013-03-04 01:52:00,21.3,-99.9,-100.00,WNW,302,0.0,0.0,-999,7.36,,---,0.00,VWS V14.01,2013-03-04 06:52:00,
2013-03-04 01:53:00,21.3,-99.9,-100.00,WNW,302,0.0,0.0,-999,7.36,,---,0.00,VWS V14.01,2013-03-04 06:53:00,
2013-03-04 01:56:00,20.8,-99.9,-100.00,SSW,211,0.0,0.0,-999,9.17,,---,0.00,VWS V14.01,2013-03-04 06:56:00,
2013-03-04 01:58:00,21.0,-99.9,-100.00,SSW,211,0.0,0.0,-999,0.00,,---,0.00,VWS V14.01,2013-03-04 06:58:00,
2013-03-04 02:01:00,21.3,-99.9,-100.00,SSW,211,0.0,0.0,-999,0.00,,---,0.00,VWS V14.01,2013-03-04 07:01:00,
2013-03-04 02:03:00,21.0,-99.9,-100.00,SSW,211,0.0,0.0,-999,23.07,,---,0.00,VWS V14.01,2013-03-04 07:03:00,
2013-03-04 02:06:00,20.8,-99.9,-100.00,SSW,211,0.0,0.0,-999,0.00,,---,0.00,VWS V14.01,2013-03-04 07:06:00,
2013-03-04 02:08:00,21.0,-99.9,-100.00,SSW,211,0.0,0.0,-999,0.00,,---,0.00,VWS V14.01,2013-03-04 07:08:00,
2013-03-04 02:12:00,20.8,-99.9,-100.00,SSW,211,0.0,0.0,-999,41.76,,---,0.00,VWS V14.01,2013-03-04 07:12:00,
2013-03-04 02:13:00,20.8,-99.9,-100.00,SSW,211,0.0,0.0,-999,0.00,,---,0.00,VWS V14.01,2013-03-04 07:13:00,
2013-03-04 02:17:00,20.8,-99.9,-100.00,SSW,211,0.0,0.0,-999,0.00,,---,0.00,VWS V14.01,2013-03-04 07:17:00,
2013-03-04 02:18:00,20.8,-99.9,-100.00,SSW,211,0.0,0.0,-999,0.00,,---,0.00,VWS V14.01,2013-03-04 07:18:00,
2013-03-04 02:22:00,20.5,-99.9,-100.00,SSW,211,0.0,0.0,-999,0.00,,---,0.00,VWS V14.01,2013-03-04 07:22:00,
2013-03-04 02:23:00,20.5,-99.9,-100.00,SSW,211,0.0,0.0,-999,0.00,,---,0.00,VWS V14.01,2013-03-04 07:23:00,
2013-03-04 02:24:00,21.0,-99.9,-100.00,SSW,211,0.0,0.0,-999,65.14,,---,0.00,VWS V14.01,2013-03-04 07:24:00,
2013-03-04 02:27:00,20.8,-99.9,-100.00,SSW,211,0.0,0.0,-999,23.07,,---,0.00,VWS V14.01,2013-03-04 07:27:00,
2013-03-04 02:28:00,20.8,-99.9,-100.00,SSW,211,0.0,0.0,-999,0.00,,---,0.00,VWS V14.01,2013-03-04 07:28:00,
2013-03-04 02:29:00,20.8,-99.9,-100.00,SSW,211,0.0,0.0,-999,54.88,,---,0.00,VWS V14.01,2013-03-04 07:29:00,
2013-03-04 02:32:00,20.8,-99.9,-100.00,SSW,211,0.0,0.0,-999,9.17,,---,0.00,VWS V14.01,2013-03-04 07:32:00,
2013-03-04 02:33:00,21.0,-99.9,-100.00,SSW,211,0.0,0.0,-999,23.07,,---,0.00,VWS V14.01,2013-03-04 07:33:00,
2013-03-04 02:34:00,21.0,-99.9,-100.00,SSW,211,0.0,0.0,-999,0.00,,---,0.00,VWS V14.01,2013-03-04 07:34:00,
2013-03-04 02:37:00,20.8,-99.9,-100.00,SSW,211,0.0,0.0,-999,0.00,,---,0.00,VWS V14.01,2013-03-04 07:37:00,
2013-03-04 02:38:00,20.5,-99.9,-100.00,SSW,211,0.0,0.0,-999,0.00,,---,0.00,VWS V14.01,2013-03-04 07:38:00,
2013-03-04 02:39:00,20.5,-99.9,-100.00,SSW,211,0.0,0.0,-999,23.07,,---,0.00,VWS V14.01,2013-03-04 07:39:00,
2013-03-04 02:42:00,20.8,-99.9,-100.00,SSW,211,0.0,0.0,-999,0.00,,---,0.00,VWS V14.01,2013-03-04 07:42:00,
2013-03-04 02:43:00,20.8,-99.9,-100.00,SSW,211,0.0,0.0,-999,0.00,,---,0.00,VWS V14.01,2013-03-04 07:43:00,
2013-03-04 02:44:00,20.8,-99.9,-100.00,SSW,211,0.0,0.0,-999,0.00,,---,0.00,VWS V14.01,2013-03-04 07:44:00,
2013-03-04 02:47:00,20.8,-99.9,-100.00,SSW,211,0.0,0.0,-999,0.00,,---,0.00,VWS V14.01,2013-03-04 07:47:00,
2013-03-04 02:48:00,20.5,-99.9,-100.00,SSW,211,0.0,0.0,-999,0.00,,---,0.00,VWS V14.01,2013-03-04 07:48:00,
2013-03-04 02:49:00,20.5,-99.9,-100.00,SSW,211,0.0,0.0,-999,0.00,,---,0.00,VWS V14.01,2013-03-04 07:49:00,
2013-03-04 02:52:00,20.2,-99.9,-100.00,SW,222,0.0,2.7,-999,0.00,,---,0.00,VWS V14.01,2013-03-04 07:52:00,
2013-03-04 02:53:00,20.8,-99.9,-100.00,SW,222,0.0,0.0,-999,47.52,,---,0.00,VWS V14.01,2013-03-04 07:53:00,
2013-03-04 02:54:00,20.8,-99.9,-100.00,SW,222,0.0,0.0,-999,0.00,,---,0.00,VWS V14.01,2013-03-04 07:54:00,
2013-03-04 02:57:00,20.8,-99.9,-100.00,SW,222,0.0,0.0,-999,24.65,,---,0.00,VWS V14.01,2013-03-04 07:57:00,
2013-03-04 02:58:00,20.5,-99.9,-100.00,SW,222,0.0,0.0,-999,0.00,,---,0.00,VWS V14.01,2013-03-04 07:58:00,
2013-03-04 02:59:00,20.5,-99.9,-100.00,SW,222,0.0,0.0,-999,0.00,,---,0.00,VWS V14.01,2013-03-04 07:59:00,
2013-03-04 03:02:00,20.8,-99.9,-100.00,SW,222,0.0,0.0,-999,0.00,,---,0.00,VWS V14.01,2013-03-04 08:02:00,
2013-03-04 03:04:00,20.8,-99.9,-100.00,SW,222,0.0,0.0,-999,1.28,,---,0.00,VWS V14.01,2013-03-04 08:04:00,
2013-03-04 03:07:00,20.8,-99.9,-100.00,SW,222,0.0,0.0,-999,9.17,,---,0.00,VWS V14.01,2013-03-04 08:07:00,
2013-03-04 03:09:00,20.8,-99.9,-100.00,SW,222,0.0,0.0,-999,24.35,,---,0.00,VWS V14.01,2013-03-04 08:09:00,
2013-03-04 03:13:00,20.8,-99.9,-100.00,SW,222,0.0,0.0,-999,0.00,,---,0.00,VWS V14.01,2013-03-04 08:13:00,
2013-03-04 03:14:00,20.5,-99.9,-100.00,SW,222,0.0,0.0,-999,0.00,,---,0.00,VWS V14.01,2013-03-04 08:14:00,
2013-03-04 03:15:00,20.8,-99.9,-100.00,SW,222,0.0,0.0,-999,24.65,,---,0.00,VWS V14.01,2013-03-04 08:15:00,
2013-03-04 03:18:00,20.2,-99.9,-100.00,SW,222,0.0,0.0,-999,0.00,,---,0.00,VWS V14.01,2013-03-04 08:18:00,
2013-03-04 03:19:00,20.2,-99.9,-100.00,SW,222,0.0,0.0,-999,0.00,,---,0.00,VWS V14.01,2013-03-04 08:19:00,
2013-03-04 03:20:00,20.5,-99.9,-100.00,SW,222,0.0,0.0,-999,0.00,,---,0.00,VWS V14.01,2013-03-04 08:20:00,
2013-03-04 03:23:00,20.5,-99.9,-100.00,SW,222,0.0,0.0,-999,0.00,,---,0.00,VWS V14.01,2013-03-04 08:23:00,
2013-03-04 03:24:00,20.5,-99.9,-100.00,SW,222,0.0,0.0,-999,65.14,,---,0.00,VWS V14.01,2013-03-04 08:24:00,
2013-03-04 03:25:00,20.8,-99.9,-100.00,SW,222,0.0,0.0,-999,0.00,,---,0.00,VWS V14.01,2013-03-04 08:25:00,
2013-03-04 03:28:00,20.5,-99.9,-100.00,SW,222,0.0,0.0,-999,24.65,,---,0.00,VWS V14.01,2013-03-04 08:28:00,
2013-03-04 03:29:00,20.8,-99.9,-100.00,SW,222,0.0,0.0,-999,57.92,,---,0.00,VWS V14.01,2013-03-04 08:29:00,
2013-03-04 03:30:00,20.8,-99.9,-100.00,SW,222,0.0,0.0,-999,0.00,,---,0.00,VWS V14.01,2013-03-04 08:30:00,
2013-03-04 03:33:00,20.5,-99.9,-100.00,SW,222,0.0,0.0,-999,24.65,,---,0.00,VWS V14.01,2013-03-04 08:33:00,
2013-03-04 03:34:00,20.8,-99.9,-100.00,SW,222,0.0,0.0,-999,1.28,,---,0.00,VWS V14.01,2013-03-04 08:34:00,
2013-03-04 03:36:00,20.8,-99.9,-100.00,SW,222,0.0,0.0,-999,0.00,,---,0.00,VWS V14.01,2013-03-04 08:36:00,
2013-03-04 03:38:00,20.8,-99.9,-100.00,SW,222,0.0,0.0,-999,0.00,,---,0.00,VWS V14.01,2013-03-04 08:38:00,
2013-03-04 03:39:00,20.2,-99.9,-100.00,SW,222,0.0,0.0,-999,24.65,,---,0.00,VWS V14.01,2013-03-04 08:39:00,
2013-03-04 03:41:00,20.8,-99.9,-100.00,SW,222,0.0,0.0,-999,57.92,,---,0.00,VWS V14.01,2013-03-04 08:41:00,
2013-03-04 03:43:00,20.2,-99.9,-100.00,SW,222,0.0,0.0,-999,0.00,,---,0.00,VWS V14.01,2013-03-04 08:43:00,
2013-03-04 03:44:00,20.5,-99.9,-100.00,SW,222,0.0,0.0,-999,0.00,,---,0.00,VWS V14.01,2013-03-04 08:44:00,
2013-03-04 03:46:00,20.8,-99.9,-100.00,SW,222,0.0,0.0,-999,1.28,,---,0.00,VWS V14.01,2013-03-04 08:46:00,
2013-03-04 03:48:00,20.5,-99.9,-100.00,SW,222,0.0,0.0,-999,0.00,,---,0.00,VWS V14.01,2013-03-04 08:48:00,
2013-03-04 03:49:00,20.5,-99.9,-100.00,SW,222,0.0,0.0,-999,0.00,,---,0.00,VWS V14.01,2013-03-04 08:49:00,
2013-03-04 03:51:00,20.2,-99.9,-100.00,SW,222,0.0,0.0,-999,24.65,,---,0.00,VWS V14.01,2013-03-04 08:51:00,
2013-03-04 03:53:00,20.8,-99.9,-100.00,SW,222,0.0,0.0,-999,0.00,,---,0.00,VWS V14.01,2013-03-04 08:53:00,
2013-03-04 03:54:00,20.5,-99.9,-100.00,SW,222,0.0,0.0,-999,0.93,,---,0.00,VWS V14.01,2013-03-04 08:54:00,
2013-03-04 03:55:00,20.5,-99.9,-100.00,SW,222,0.0,0.0,-999,0.00,,---,0.00,VWS V14.01,2013-03-04 08:55:00,
2013-03-04 03:56:00,20.2,-99.9,-100.00,SW,222,0.0,0.0,-999,24.35,,---,0.00,VWS V14.01,2013-03-04 08:56:00,
2013-03-04 03:58:00,20.5,-99.9,-100.00,SW,222,0.0,0.0,-999,0.00,,---,0.00,VWS V14.01,2013-03-04 08:58:00,
2013-03-04 03:59:00,20.5,-99.9,-100.00,SW,222,0.0,0.0,-999,0.00,,---,0.00,VWS V14.01,2013-03-04 08:59:00,
2013-03-04 04:00:00,20.2,-99.9,-100.00,SW,222,0.0,0.0,-999,0.00,,---,0.00,VWS V14.01,2013-03-04 09:00:00,
2013-03-04 04:01:00,20.5,-99.9,-100.00,SW,222,0.0,0.0,-999,0.00,,---,0.00,VWS V14.01,2013-03-04 09:01:00,
2013-03-04 04:04:00,20.8,-99.9,-100.00,SW,222,0.0,0.0,-999,24.65,,---,0.00,VWS V14.01,2013-03-04 09:04:00,
2013-03-04 04:05:00,20.5,-99.9,-100.00,SW,222,0.0,0.0,-999,56.64,,---,0.00,VWS V14.01,2013-03-04 09:05:00,
2013-03-04 04:06:00,20.8,-99.9,-100.00,SW,222,0.0,0.0,-999,0.93,,---,0.00,VWS V14.01,2013-03-04 09:06:00,
2013-03-04 04:09:00,20.5,-99.9,-100.00,SW,222,0.0,0.0,-999,0.00,,---,0.00,VWS V14.01,2013-03-04 09:09:00,
2013-03-04 04:10:00,20.5,-99.9,-100.00,SW,222,0.0,0.0,-999,0.00,,---,0.00,VWS V14.01,2013-03-04 09:10:00,
2013-03-04 04:11:00,20.8,-99.9,-100.00,SW,222,0.0,0.0,-999,43.52,,---,0.00,VWS V14.01,2013-03-04 09:11:00,
2013-03-04 04:14:00,20.5,-99.9,-100.00,SW,222,0.0,0.0,-999,0.00,,---,0.00,VWS V14.01,2013-03-04 09:14:00,
2013-03-04 04:15:00,20.5,-99.9,-100.00,SW,222,0.0,0.0,-999,24.65,,---,0.00,VWS V14.01,2013-03-04 09:15:00,
2013-03-04 04:16:00,20.2,-99.9,-100.00,SW,222,0.0,0.0,-999,0.00,,---,0.00,VWS V14.01,2013-03-04 09:16:00,
2013-03-04 04:19:00,20.0,-99.9,-100.00,SW,222,0.0,0.0,-999,0.00,,---,0.00,VWS V14.01,2013-03-04 09:19:00,
2013-03-04 04:20:00,20.2,-99.9,-100.00,SW,222,0.0,0.0,-999,0.00,,---,0.00,VWS V14.01,2013-03-04 09:20:00,
2013-03-04 04:21:00,20.0,-99.9,-100.00,SW,222,0.0,0.0,-999,0.00,,---,0.00,VWS V14.01,2013-03-04 09:21:00,
2013-03-04 04:24:00,20.2,-99.9,-100.00,SW,222,0.0,0.0,-999,0.00,,---,0.00,VWS V14.01,2013-03-04 09:24:00,
2013-03-04 04:25:00,20.0,-99.9,-100.00,SW,222,0.0,0.0,-999,0.00,,---,0.00,VWS V14.01,2013-03-04 09:25:00,
2013-03-04 04:27:00,20.0,-99.9,-100.00,SW,222,0.0,0.0,-999,24.65,,---,0.00,VWS V14.01,2013-03-04 09:27:00,
2013-03-04 04:29:00,20.0,-99.9,-100.00,SW,222,0.0,0.0,-999,0.00,,---,0.00,VWS V14.01,2013-03-04 09:29:00,
2013-03-04 04:30:00,20.2,-99.9,-100.00,SW,222,0.0,0.0,-999,0.93,,---,0.00,VWS V14.01,2013-03-04 09:30:00,
2013-03-04 04:32:00,20.0,-99.9,-100.00,SW,222,0.0,0.0,-999,24.35,,---,0.00,VWS V14.01,2013-03-04 09:32:00,
2013-03-04 04:34:00,20.0,-99.9,-100.00,SW,222,0.0,0.0,-999,0.00,,---,0.00,VWS V14.01,2013-03-04 09:34:00,
2013-03-04 04:35:00,20.2,-99.9,-100.00,SW,222,0.0,0.0,-999,43.52,,---,0.00,VWS V14.01,2013-03-04 09:35:00,
2013-03-04 04:37:00,20.2,-99.9,-100.00,SW,222,0.0,0.0,-999,0.00,,---,0.00,VWS V14.01,2013-03-04 09:37:00,
2013-03-04 04:39:00,20.2,-99.9,-100.00,SW,222,0.0,0.0,-999,0.00,,---,0.00,VWS V14.01,2013-03-04 09:39:00,
2013-03-04 04:40:00,20.2,-99.9,-100.00,SW,222,0.0,0.0,-999,0.00,,---,0.00,VWS V14.01,2013-03-04 09:40:00,
2013-03-04 04:41:00,20.5,-99.9,-100.00,SW,222,0.0,0.0,-999,0.00,,---,0.00,VWS V14.01,2013-03-04 09:41:00,
2013-03-04 04:42:00,20.2,-99.9,-100.00,SW,222,0.0,0.0,-999,0.93,,---,0.00,VWS V14.01,2013-03-04 09:42:00,
2013-03-04 04:44:00,20.2,-99.9,-100.00,SW,222,0.0,0.0,-999,0.00,,---,0.00,VWS V14.01,2013-03-04 09:44:00,
2013-03-04 04:45:00,20.0,-99.9,-100.00,SW,222,0.0,0.0,-999,0.00,,---,0.00,VWS V14.01,2013-03-04 09:45:00,
2013-03-04 04:46:00,20.5,-99.9,-100.00,SW,222,0.0,0.0,-999,0.00,,---,0.00,VWS V14.01,2013-03-04 09:46:00,
2013-03-04 04:47:00,20.5,-99.9,-100.00,SW,222,0.0,0.0,-999,43.52,,---,0.00,VWS V14.01,2013-03-04 09:47:00,
2013-03-04 04:50:00,20.0,-99.9,-100.00,SW,222,0.0,0.0,-999,0.00,,---,0.00,VWS V14.01,2013-03-04 09:50:00,
2013-03-04 04:51:00,20.8,-99.9,-100.00,SW,222,0.0,0.0,-999,0.00,,---,0.00,VWS V14.01,2013-03-04 09:51:00,
2013-03-04 04:52:00,20.5,-99.9,-100.00,SW,222,0.0,0.0,-999,0.00,,---,0.00,VWS V14.01,2013-03-04 09:52:00,
2013-03-04 04:55:00,20.2,-99.9,-100.00,SW,222,0.0,0.0,-999,9.17,,---,0.00,VWS V14.01,2013-03-04 09:55:00,
2013-03-04 04:56:00,20.2,-99.9,-100.00,SW,222,0.0,0.0,-999,24.35,,---,0.00,VWS V14.01,2013-03-04 09:56:00,
2013-03-04 04:57:00,20.2,-99.9,-100.00,SW,222,0.0,0.0,-999,0.00,,---,0.00,VWS V14.01,2013-03-04 09:57:00,
2013-03-04 05:00:00,20.0,-99.9,-100.00,SW,222,0.0,0.0,-999,0.00,,---,0.00,VWS V14.01,2013-03-04 10:00:00,
2013-03-04 05:01:00,20.2,-99.9,-100.00,SW,222,0.0,0.0,-999,0.00,,---,0.00,VWS V14.01,2013-03-04 10:01:00,
2013-03-04 05:02:00,20.2,-99.9,-100.00,SW,222,0.0,0.0,-999,24.35,,---,0.00,VWS V14.01,2013-03-04 10:02:00,
2013-03-04 05:05:00,20.2,-99.9,-100.00,SW,222,0.0,0.0,-999,0.00,,---,0.00,VWS V14.01,2013-03-04 10:05:00,
2013-03-04 05:06:00,20.2,-99.9,-100.00,SW,222,0.0,0.0,-999,0.93,,---,0.00,VWS V14.01,2013-03-04 10:06:00,
2013-03-04 05:07:00,20.8,-99.9,-100.00,SW,222,0.0,0.0,-999,0.00,,---,0.00,VWS V14.01,2013-03-04 10:07:00,
2013-03-04 05:10:00,20.8,-99.9,-100.00,SW,222,0.0,0.0,-999,78.26,,---,0.00,VWS V14.01,2013-03-04 10:10:00,
2013-03-04 05:11:00,20.0,-99.9,-100.00,SW,222,0.0,0.0,-999,65.14,,---,0.00,VWS V14.01,2013-03-04 10:11:00,
2013-03-04 05:13:00,20.2,-99.9,-100.00,SW,222,0.0,0.0,-999,0.00,,---,0.00,VWS V14.01,2013-03-04 10:13:00,
2013-03-04 05:15:00,20.5,-99.9,-100.00,SW,222,0.0,0.0,-999,0.00,,---,0.00,VWS V14.01,2013-03-04 10:15:00,
2013-03-04 05:16:00,20.5,-99.9,-100.00,SW,222,0.0,0.0,-999,0.00,,---,0.00,VWS V14.01,2013-03-04 10:16:00,
2013-03-04 05:18:00,20.2,-99.9,-100.00,SW,222,0.0,0.0,-999,0.00,,---,0.00,VWS V14.01,2013-03-04 10:18:00,
2013-03-04 05:20:00,20.2,-99.9,-100.00,SW,222,0.0,0.0,-999,0.00,,---,0.00,VWS V14.01,2013-03-04 10:20:00,
2013-03-04 05:21:00,20.0,-99.9,-100.00,SW,222,0.0,0.0,-999,0.00,,---,0.00,VWS V14.01,2013-03-04 10:21:00,
2013-03-04 05:23:00,20.5,-99.9,-100.00,SW,222,0.0,0.0,-999,65.14,,---,0.00,VWS V14.01,2013-03-04 10:23:00,
2013-03-04 05:25:00,20.8,-99.9,-100.00,SW,222,0.0,0.0,-999,0.00,,---,0.00,VWS V14.01,2013-03-04 10:25:00,
2013-03-04 05:26:00,20.2,-99.9,-100.00,SW,222,0.0,0.0,-999,24.35,,---,0.00,VWS V14.01,2013-03-04 10:26:00,
2013-03-04 05:28:00,20.2,-99.9,-100.00,SW,222,0.0,0.0,-999,0.00,,---,0.00,VWS V14.01,2013-03-04 10:28:00,
2013-03-04 05:30:00,20.8,-99.9,-100.00,SW,222,0.0,0.0,-999,0.00,,---,0.00,VWS V14.01,2013-03-04 10:30:00,
2013-03-04 05:31:00,20.0,-99.9,-100.00,SW,222,0.0,0.0,-999,9.17,,---,0.00,VWS V14.01,2013-03-04 10:31:00,
2013-03-04 05:33:00,20.2,-99.9,-100.00,SW,222,0.0,0.0,-999,0.00,,---,0.00,VWS V14.01,2013-03-04 10:33:00,
2013-03-04 05:36:00,20.2,-99.9,-100.00,SW,222,0.0,0.0,-999,0.00,,---,0.00,VWS V14.01,2013-03-04 10:36:00,
2013-03-04 05:38:00,20.0,-99.9,-100.00,SW,222,0.0,0.0,-999,24.65,,---,0.00,VWS V14.01,2013-03-04 10:38:00,
2013-03-04 05:41:00,19.7,-99.9,-100.00,SW,222,0.0,0.0,-999,0.00,,---,0.00,VWS V14.01,2013-03-04 10:41:00,
2013-03-04 05:43:00,19.5,-99.9,-100.00,SW,222,0.0,0.0,-999,0.00,,---,0.00,VWS V14.01,2013-03-04 10:43:00,
2013-03-04 05:46:00,19.2,-99.9,-100.00,SW,222,0.0,0.0,-999,56.64,,---,0.00,VWS V14.01,2013-03-04 10:46:00,
2013-03-04 05:48:00,19.2,-99.9,-100.00,SW,222,0.0,0.0,-999,0.00,,---,0.00,VWS V14.01,2013-03-04 10:48:00,
2013-03-04 05:51:00,19.0,-99.9,-100.00,SW,222,0.0,0.0,-999,0.00,,---,0.00,VWS V14.01,2013-03-04 10:51:00,
2013-03-04 05:53:00,18.7,-99.9,-100.00,SW,222,0.0,0.0,-999,0.00,,---,0.00,VWS V14.01,2013-03-04 10:53:00,
2013-03-04 05:56:00,18.4,-99.9,-100.00,SW,222,0.0,0.0,-999,24.65,,---,0.00,VWS V14.01,2013-03-04 10:56:00,
2013-03-04 05:57:00,18.1,-99.9,-100.00,SW,222,0.0,0.0,-999,0.00,,---,0.00,VWS V14.01,2013-03-04 10:57:00,
2013-03-04 05:58:00,17.6,-99.9,-100.00,SW,222,0.0,0.0,-999,65.14,,---,0.00,VWS V14.01,2013-03-04 10:58:00,
2013-03-04 06:01:00,17.3,-99.9,-100.00,SW,222,0.0,0.0,-999,0.00,,---,0.00,VWS V14.01,2013-03-04 11:01:00,
2013-03-04 06:02:00,17.0,-99.9,-100.00,SW,222,0.0,0.0,-999,24.35,,---,0.00,VWS V14.01,2013-03-04 11:02:00,
2013-03-04 06:04:00,17.3,-99.9,-100.00,SW,222,0.0,0.0,-999,0.00,,---,0.00,VWS V14.01,2013-03-04 11:04:00,
2013-03-04 06:06:00,17.0,-99.9,-100.00,SW,222,0.0,0.0,-999,0.00,,---,0.00,VWS V14.01,2013-03-04 11:06:00,
2013-03-04 06:07:00,17.0,-99.9,-100.00,SW,222,0.0,0.0,-999,0.00,,---,0.00,VWS V14.01,2013-03-04 11:07:00,
2013-03-04 06:09:00,16.5,-99.9,-100.00,SW,222,0.0,0.0,-999,0.00,,---,0.00,VWS V14.01,2013-03-04 11:09:00,
2013-03-04 06:11:00,16.8,-99.9,-100.00,SW,222,0.0,0.0,-999,0.00,,---,0.00,VWS V14.01,2013-03-04 11:11:00,
2013-03-04 06:12:00,17.0,-99.9,-100.00,SW,222,0.0,0.0,-999,0.00,,---,0.00,VWS V14.01,2013-03-04 11:12:00,
2013-03-04 06:14:00,16.5,-99.9,-100.00,SW,222,0.0,0.0,-999,24.65,,---,0.00,VWS V14.01,2013-03-04 11:14:00,
2013-03-04 06:16:00,16.5,-99.9,-100.00,SW,222,0.0,0.0,-999,0.00,,---,0.00,VWS V14.01,2013-03-04 11:16:00,
2013-03-04 06:17:00,16.0,-99.9,-100.00,SW,222,0.0,0.0,-999,0.00,,---,0.00,VWS V14.01,2013-03-04 11:17:00,
2013-03-04 06:19:00,15.7,-99.9,-100.00,SW,222,0.0,0.0,-999,0.00,,---,0.00,VWS V14.01,2013-03-04 11:19:00,
2013-03-04 06:22:00,15.7,-99.9,-100.00,SW,222,0.0,0.0,-999,0.00,,---,0.00,VWS V14.01,2013-03-04 11:22:00,
2013-03-04 06:24:00,15.1,-99.9,-100.00,SW,222,0.0,0.0,-999,0.00,,---,0.00,VWS V14.01,2013-03-04 11:24:00,
2013-03-04 06:27:00,16.0,-99.9,-100.00,SW,222,0.0,0.0,-999,0.00,,---,0.00,VWS V14.01,2013-03-04 11:27:00,
2013-03-04 06:29:00,16.2,-99.9,-100.00,SW,222,0.0,0.0,-999,0.00,,---,0.00,VWS V14.01,2013-03-04 11:29:00,
2013-03-04 06:32:00,16.0,-99.9,-100.00,SW,222,0.0,0.0,-999,24.65,,---,0.00,VWS V14.01,2013-03-04 11:32:00,
2013-03-04 06:34:00,17.0,-99.9,-100.00,SW,222,0.0,0.0,-999,56.64,,---,0.00,VWS V14.01,2013-03-04 11:34:00,
2013-03-04 06:37:00,17.9,-99.9,-100.00,SW,222,0.0,0.0,-999,24.35,,---,0.00,VWS V14.01,2013-03-04 11:37:00,
2013-03-04 06:38:00,17.6,-99.9,-100.00,SW,222,0.0,0.0,-999,24.65,,---,0.00,VWS V14.01,2013-03-04 11:38:00,
2013-03-04 06:39:00,18.4,-99.9,-100.00,SW,222,0.0,0.0,-999,0.00,,---,0.00,VWS V14.01,2013-03-04 11:39:00,
2013-03-04 06:42:00,19.0,-99.9,-100.00,SW,222,0.0,0.0,-999,0.00,,---,0.00,VWS V14.01,2013-03-04 11:42:00,
2013-03-04 06:43:00,18.7,-99.9,-100.00,SW,222,0.0,0.0,-999,0.00,,---,0.00,VWS V14.01,2013-03-04 11:43:00,
2013-03-04 06:44:00,18.7,-99.9,-100.00,SW,222,0.0,0.0,-999,0.00,,---,0.00,VWS V14.01,2013-03-04 11:44:00,
2013-03-04 06:47:00,19.2,-99.9,-100.00,SW,222,0.0,0.0,-999,0.00,,---,0.00,VWS V14.01,2013-03-04 11:47:00,
2013-03-04 06:48:00,19.5,-99.9,-100.00,SW,222,0.0,0.0,-999,0.00,,---,0.00,VWS V14.01,2013-03-04 11:48:00,
2013-03-04 06:49:00,19.5,-99.9,-100.00,SW,222,0.0,0.0,-999,24.35,,---,0.00,VWS V14.01,2013-03-04 11:49:00,
2013-03-04 06:52:00,19.2,-99.9,-100.00,SW,222,0.0,0.0,-999,0.00,,---,0.00,VWS V14.01,2013-03-04 11:52:00,
2013-03-04 06:53:00,19.7,-99.9,-100.00,SW,222,0.0,0.0,-999,0.93,,---,0.00,VWS V14.01,2013-03-04 11:53:00,
2013-03-04 06:54:00,20.0,-99.9,-100.00,SW,222,0.0,0.0,-999,0.00,,---,0.00,VWS V14.01,2013-03-04 11:54:00,
2013-03-04 06:57:00,20.2,-99.9,-100.00,SW,222,0.0,0.0,-999,0.00,,---,0.00,VWS V14.01,2013-03-04 11:57:00,
2013-03-04 06:58:00,19.7,-99.9,-100.00,SW,222,0.0,0.0,-999,56.64,,---,0.00,VWS V14.01,2013-03-04 11:58:00,
2013-03-04 06:59:00,19.7,-99.9,-100.00,SW,222,0.0,0.0,-999,0.00,,---,0.00,VWS V14.01,2013-03-04 11:59:00,
2013-03-04 07:02:00,20.0,-99.9,-100.00,SW,226,6.6,6.6,-999,24.65,,---,0.00,VWS V14.01,2013-03-04 12:02:00,
2013-03-04 07:03:00,20.0,-99.9,-100.00,WSW,240,3.2,6.6,-999,0.00,,---,0.00,VWS V14.01,2013-03-04 12:03:00,
2013-03-04 07:04:00,20.2,-99.9,-100.00,WSW,239,0.0,0.0,-999,0.00,,---,0.00,VWS V14.01,2013-03-04 12:04:00,
2013-03-04 07:07:00,20.2,-99.9,-100.00,SW,225,0.0,0.0,-999,25.15,,---,0.00,VWS V14.01,2013-03-04 12:07:00,
2013-03-04 07:08:00,20.5,-99.9,-100.00,SW,225,0.0,0.0,-999,0.80,,---,0.00,VWS V14.01,2013-03-04 12:08:00,
2013-03-04 07:09:00,20.5,-99.9,-100.00,SW,225,0.0,0.0,-999,56.64,,---,0.00,VWS V14.01,2013-03-04 12:09:00,
2013-03-04 07:12:00,20.5,-99.9,-100.00,West,270,3.5,5.2,-999,0.00,,---,0.00,VWS V14.01,2013-03-04 12:12:00,
2013-03-04 07:13:00,20.5,-99.9,-100.00,WSW,245,3.2,5.2,-999,0.00,,---,0.00,VWS V14.01,2013-03-04 12:13:00,
2013-03-04 07:15:00,20.5,-99.9,-100.00,West,263,0.0,0.0,-999,2.56,,---,0.00,VWS V14.01,2013-03-04 12:15:00,
2013-03-04 07:17:00,20.2,-99.9,-100.00,WSW,256,0.0,0.0,-999,0.93,,---,0.00,VWS V14.01,2013-03-04 12:17:00,
2013-03-04 07:18:00,20.2,-99.9,-100.00,WSW,256,0.0,0.0,-999,9.17,,---,0.00,VWS V14.01,2013-03-04 12:18:00,
2013-03-04 07:20:00,20.2,-99.9,-100.00,WSW,256,0.0,0.0,-999,3.84,,---,0.00,VWS V14.01,2013-03-04 12:20:00,
2013-03-04 07:23:00,20.8,-99.9,-100.00,South,187,4.2,4.2,-999,0.00,,---,0.00,VWS V14.01,2013-03-04 12:23:00,
2013-03-04 07:25:00,20.8,-99.9,-100.00,SW,228,4.2,6.5,-999,27.55,,---,0.00,VWS V14.01,2013-03-04 12:25:00,
2013-03-04 07:28:00,20.8,-99.9,-100.00,SW,214,0.0,0.0,-999,0.00,,---,0.00,VWS V14.01,2013-03-04 12:28:00,
2013-03-04 07:30:00,21.0,-99.9,-100.00,WSW,248,6.5,6.5,-999,0.00,,---,0.00,VWS V14.01,2013-03-04 12:30:00,
2013-03-04 07:33:00,20.8,-99.9,-100.00,SW,236,3.1,3.2,-999,0.96,,---,0.00,VWS V14.01,2013-03-04 12:33:00,
2013-03-04 07:35:00,21.3,-99.9,-100.00,SW,225,0.0,0.0,-999,0.00,,---,0.00,VWS V14.01,2013-03-04 12:35:00,
2013-03-04 07:38:00,21.5,-99.9,-100.00,SW,225,0.0,0.0,-999,24.67,,---,0.00,VWS V14.01,2013-03-04 12:38:00,
2013-03-04 07:39:00,21.5,-99.9,-100.00,SW,225,0.0,0.0,-999,0.32,,---,0.00,VWS V14.01,2013-03-04 12:39:00,
2013-03-04 07:40:00,21.5,-99.9,-100.00,SW,225,0.0,0.0,-999,0.00,,---,0.00,VWS V14.01,2013-03-04 12:40:00,
2013-03-04 07:43:00,21.5,-99.9,-100.00,SW,233,5.0,9.0,-999,29.31,,---,0.00,VWS V14.01,2013-03-04 12:43:00,
2013-03-04 07:44:00,21.8,-99.9,-100.00,WSW,249,3.2,5.5,-999,4.96,,---,0.00,VWS V14.01,2013-03-04 12:44:00,
2013-03-04 07:45:00,21.8,-99.9,-100.00,SW,229,0.0,0.0,-999,78.26,,---,0.00,VWS V14.01,2013-03-04 12:45:00,
2013-03-04 07:48:00,22.3,-99.9,-100.00,SW,214,0.0,0.0,-999,0.00,,---,0.00,VWS V14.01,2013-03-04 12:48:00,
2013-03-04 07:49:00,22.3,-99.9,-100.00,SW,214,0.0,0.0,-999,23.39,,---,0.00,VWS V14.01,2013-03-04 12:49:00,
2013-03-04 07:51:00,22.3,-99.9,-100.00,SSW,212,7.0,7.0,-999,0.00,,---,0.00,VWS V14.01,2013-03-04 12:51:00,
2013-03-04 07:53:00,22.6,-99.9,-100.00,WSW,250,8.3,8.3,-999,0.93,,---,0.00,VWS V14.01,2013-03-04 12:53:00,
2013-03-04 07:54:00,23.1,-99.9,-100.00,SW,221,2.1,8.3,-999,9.17,,---,0.00,VWS V14.01,2013-03-04 12:54:00,
2013-03-04 07:56:00,23.9,-99.9,-100.00,SSW,205,4.3,7.0,-999,2.88,,---,0.00,VWS V14.01,2013-03-04 12:56:00,
2013-03-04 07:58:00,23.9,-99.9,-100.00,SSW,195,5.3,5.3,-999,0.00,,---,0.00,VWS V14.01,2013-03-04 12:58:00,
2013-03-04 07:59:00,23.4,-99.9,-100.00,WSW,240,6.0,6.0,-999,0.00,,---,0.00,VWS V14.01,2013-03-04 12:59:00,
2013-03-04 08:01:00,23.9,-99.9,-100.00,West,266,5.3,5.5,-999,27.55,,---,0.00,VWS V14.01,2013-03-04 13:01:00,
2013-03-04 08:04:00,23.9,-99.9,-100.00,SW,236,0.0,0.0,-999,0.00,,---,0.00,VWS V14.01,2013-03-04 13:04:00,
2013-03-04 08:06:00,24.2,-99.9,-100.00,SW,219,5.3,9.3,-999,0.00,,---,0.00,VWS V14.01,2013-03-04 13:06:00,
2013-03-04 08:09:00,24.2,-99.9,-100.00,SW,229,4.6,5.0,-999,0.00,,---,0.00,VWS V14.01,2013-03-04 13:09:00,
2013-03-04 08:11:00,24.4,-99.9,-100.00,SW,226,7.0,7.0,-999,0.00,,---,0.00,VWS V14.01,2013-03-04 13:11:00,
2013-03-04 08:14:00,24.2,-99.9,-100.00,SW,236,3.2,5.4,-999,0.00,,---,0.00,VWS V14.01,2013-03-04 13:14:00,
2013-03-04 08:16:00,24.3,-99.9,-100.00,SW,233,5.5,5.5,-999,0.00,,---,0.00,VWS V14.01,2013-03-04 13:16:00,
2013-03-04 08:19:00,24.8,-99.9,-100.00,WSW,243,0.0,5.2,-999,17.58,,---,0.00,VWS V14.01,2013-03-04 13:19:00,
2013-03-04 08:21:00,24.7,-99.9,-100.00,West,270,4.3,7.6,-999,52.80,,---,0.00,VWS V14.01,2013-03-04 13:21:00,
2013-03-04 08:24:00,25.0,-99.9,-100.00,WSW,250,7.4,7.4,-999,0.00,,---,0.00,VWS V14.01,2013-03-04 13:24:00,
2013-03-04 08:25:00,24.6,-99.9,-100.00,SW,219,0.0,5.4,-999,24.33,,---,0.00,VWS V14.01,2013-03-04 13:25:00,
2013-03-04 08:26:00,25.1,-99.9,-100.00,West,264,4.8,4.8,-999,0.00,,---,0.00,VWS V14.01,2013-03-04 13:26:00,
2013-03-04 08:29:00,25.7,-99.9,-100.00,WSW,252,5.0,5.0,-999,39.68,,---,0.00,VWS V14.01,2013-03-04 13:29:00,
2013-03-04 08:30:00,25.4,-99.9,-100.00,WSW,255,3.2,4.3,-999,0.00,,---,0.00,VWS V14.01,2013-03-04 13:30:00,
2013-03-04 08:31:00,25.7,-99.9,-100.00,WSW,242,8.1,8.1,-999,2.72,,---,0.00,VWS V14.01,2013-03-04 13:31:00,
2013-03-04 08:34:00,25.7,-99.9,-100.00,WSW,252,0.0,3.1,-999,36.95,,---,0.00,VWS V14.01,2013-03-04 13:34:00,
2013-03-04 08:35:00,26.0,-99.9,-100.00,WSW,252,0.0,0.0,-999,39.68,,---,0.00,VWS V14.01,2013-03-04 13:35:00,
2013-03-04 08:36:00,25.7,-99.9,-100.00,WSW,250,5.5,6.3,-999,29.29,,---,0.00,VWS V14.01,2013-03-04 13:36:00,
2013-03-04 08:39:00,25.7,-99.9,-100.00,South,179,0.0,5.3,-999,56.32,,---,0.00,VWS V14.01,2013-03-04 13:39:00,
2013-03-04 08:40:00,25.7,-99.9,-100.00,WSW,257,5.7,5.7,-999,0.00,,---,0.00,VWS V14.01,2013-03-04 13:40:00,
2013-03-04 08:41:00,25.7,-99.9,-100.00,WSW,238,6.1,6.5,-999,9.17,,---,0.00,VWS V14.01,2013-03-04 13:41:00,
2013-03-04 08:44:00,25.4,-99.9,-100.00,SSW,195,2.9,4.6,-999,7.04,,---,0.00,VWS V14.01,2013-03-04 13:44:00,
2013-03-04 08:46:00,27.0,-99.9,-100.00,SW,219,3.5,3.5,-999,65.14,,---,0.00,VWS V14.01,2013-03-04 13:46:00,
2013-03-04 08:47:00,26.5,-99.9,-100.00,WSW,245,4.6,5.8,-999,0.00,,---,0.00,VWS V14.01,2013-03-04 13:47:00,
2013-03-04 08:49:00,26.5,-99.9,-100.00,WSW,238,2.5,2.5,-999,20.01,,---,0.00,VWS V14.01,2013-03-04 13:49:00,
2013-03-04 08:50:00,27.2,-99.9,-100.00,SW,225,4.8,4.8,-999,20.01,,---,0.00,VWS V14.01,2013-03-04 13:50:00,
2013-03-04 08:51:00,27.2,-99.9,-100.00,SW,232,4.8,4.8,-999,57.60,,---,0.00,VWS V14.01,2013-03-04 13:51:00,
2013-03-04 08:52:00,26.5,-99.9,-100.00,WSW,245,6.3,6.3,-999,0.00,,---,0.00,VWS V14.01,2013-03-04 13:52:00,
2013-03-04 08:54:00,26.0,-99.9,-100.00,WSW,238,0.0,5.6,-999,26.11,,---,0.00,VWS V14.01,2013-03-04 13:54:00,
2013-03-04 08:55:00,26.0,-99.9,-100.00,WSW,238,0.0,5.6,-999,26.11,,---,0.00,VWS V14.01,2013-03-04 13:55:00,
2013-03-04 08:56:00,26.7,-99.9,-100.00,WSW,238,0.0,0.0,-999,0.00,,---,0.00,VWS V14.01,2013-03-04 13:56:00,
2013-03-04 08:57:00,27.0,-99.9,-100.00,SW,231,4.3,4.3,-999,53.76,,---,0.00,VWS V14.01,2013-03-04 13:57:00,
2013-03-04 09:00:00,27.7,-99.9,-100.00,SSW,198,0.0,0.0,-999,39.68,,---,0.00,VWS V14.01,2013-03-04 14:00:00,
2013-03-04 09:01:00,28.0,-99.9,-100.00,WSW,256,1.6,7.8,-999,26.09,,---,0.00,VWS V14.01,2013-03-04 14:01:00,
2013-03-04 09:02:00,26.7,-99.9,-100.00,West,263,4.4,6.2,-999,0.00,,---,0.00,VWS V14.01,2013-03-04 14:02:00,
2013-03-04 09:05:00,26.0,-99.9,-100.00,WSW,243,3.5,3.5,-999,0.00,,---,0.00,VWS V14.01,2013-03-04 14:05:00,
2013-03-04 09:06:00,27.5,-99.9,-100.00,West,259,0.0,0.0,-999,28.51,,---,0.00,VWS V14.01,2013-03-04 14:06:00,
2013-03-04 09:07:00,28.0,-99.9,-100.00,West,259,0.0,0.0,-999,28.81,,---,0.00,VWS V14.01,2013-03-04 14:07:00,
2013-03-04 09:10:00,27.2,-99.9,-100.00,SSW,205,5.8,5.8,-999,0.00,,---,0.00,VWS V14.01,2013-03-04 14:10:00,
2013-03-04 09:11:00,27.2,-99.9,-100.00,West,259,0.0,6.6,-999,39.68,,---,0.00,VWS V14.01,2013-03-04 14:11:00,
2013-03-04 09:13:00,27.2,-99.9,-100.00,WSW,249,5.8,6.3,-999,25.77,,---,0.00,VWS V14.01,2013-03-04 14:13:00,
2013-03-04 09:15:00,27.7,-99.9,-100.00,WSW,257,0.0,0.0,-999,59.04,,---,0.00,VWS V14.01,2013-03-04 14:15:00,
2013-03-04 09:16:00,27.0,-99.9,-100.00,WSW,255,5.3,5.3,-999,0.00,,---,0.00,VWS V14.01,2013-03-04 14:16:00,
2013-03-04 09:18:00,28.0,-99.9,-100.00,WSW,249,0.0,0.0,-999,0.00,,---,0.00,VWS V14.01,2013-03-04 14:18:00,
2013-03-04 09:20:00,29.3,-99.9,-100.00,WSW,249,0.0,0.0,-999,0.64,,---,0.00,VWS V14.01,2013-03-04 14:20:00,
2013-03-04 09:21:00,28.8,-99.9,-100.00,WSW,256,5.0,6.5,-999,0.00,,---,0.00,VWS V14.01,2013-03-04 14:21:00,
2013-03-04 09:23:00,29.0,-99.9,-100.00,WSW,250,3.4,6.5,-999,0.00,,---,0.00,VWS V14.01,2013-03-04 14:23:00,
2013-03-04 09:25:00,30.0,-99.9,-100.00,WSW,249,0.0,0.0,-999,27.69,,---,0.00,VWS V14.01,2013-03-04 14:25:00,
2013-03-04 09:26:00,31.3,-99.9,-100.00,SW,219,0.0,0.0,-999,56.96,,---,0.00,VWS V14.01,2013-03-04 14:26:00,
2013-03-04 09:28:00,31.7,-99.9,-100.00,SW,219,0.0,0.0,-999,28.77,,---,0.00,VWS V14.01,2013-03-04 14:28:00,
2013-03-04 09:30:00,31.0,-99.9,-100.00,West,271,5.8,5.8,-999,0.00,,---,0.00,VWS V14.01,2013-03-04 14:30:00,
2013-03-04 09:31:00,31.5,-99.9,-100.00,NW,304,0.0,7.1,-999,9.12,,---,0.00,VWS V14.01,2013-03-04 14:31:00,
2013-03-04 09:33:00,32.3,-99.9,-100.00,NW,304,0.0,0.0,-999,0.00,,---,0.00,VWS V14.01,2013-03-04 14:33:00,
2013-03-04 09:35:00,33.8,-99.9,-100.00,NW,304,0.0,0.0,-999,0.00,,---,0.00,VWS V14.01,2013-03-04 14:35:00,
2013-03-04 09:36:00,35.0,-99.9,-100.00,SW,214,3.0,3.5,-999,23.69,,---,0.00,VWS V14.01,2013-03-04 14:36:00,
2013-03-04 09:38:00,32.8,-99.9,-100.00,West,276,3.2,4.4,-999,52.00,,---,0.00,VWS V14.01,2013-03-04 14:38:00,
2013-03-04 09:40:00,33.0,-99.9,-100.00,NW,304,0.0,0.0,-999,40.61,,---,0.00,VWS V14.01,2013-03-04 14:40:00,
2013-03-04 09:41:00,33.8,-99.9,-100.00,NW,304,0.0,0.0,-999,0.00,,---,0.00,VWS V14.01,2013-03-04 14:41:00,
2013-03-04 09:43:00,33.8,-99.9,-100.00,West,273,0.0,4.4,-999,0.00,,---,0.00,VWS V14.01,2013-03-04 14:43:00,
2013-03-04 09:45:00,33.0,-99.9,-100.00,West,273,0.0,0.0,-999,31.52,,---,0.00,VWS V14.01,2013-03-04 14:45:00,
2013-03-04 09:46:00,33.0,-99.9,-100.00,SW,219,0.0,5.6,-999,0.00,,---,0.00,VWS V14.01,2013-03-04 14:46:00,
2013-03-04 09:48:00,34.0,-99.9,-100.00,SW,219,0.0,0.0,-999,24.33,,---,0.00,VWS V14.01,2013-03-04 14:48:00,
2013-03-04 09:50:00,32.0,-99.9,-100.00,SW,219,0.0,0.0,-999,0.00,,---,0.00,VWS V14.01,2013-03-04 14:50:00,
2013-03-04 09:52:00,34.8,-99.9,-100.00,SW,219,0.0,0.0,-999,36.95,,---,0.00,VWS V14.01,2013-03-04 14:52:00,
2013-03-04 09:54:00,39.5,-99.9,-100.00,SW,233,0.0,0.0,-999,0.00,,---,0.00,VWS V14.01,2013-03-04 14:54:00,
2013-03-04 09:55:00,37.3,-99.9,-100.00,SW,233,0.0,0.0,-999,0.00,,---,0.00,VWS V14.01,2013-03-04 14:55:00,
2013-03-04 09:57:00,39.3,-99.9,-100.00,West,278,4.9,4.9,-999,54.88,,---,0.00,VWS V14.01,2013-03-04 14:57:00,
2013-03-04 09:59:00,40.3,-99.9,-100.00,SW,228,3.2,5.0,-999,0.00,,---,0.00,VWS V14.01,2013-03-04 14:59:00,
2013-03-04 10:00:00,36.8,-99.9,-100.00,SW,228,0.0,0.0,-999,0.00,,---,0.00,VWS V14.01,2013-03-04 15:00:00,
2013-03-04 10:02:00,37.3,-99.9,-100.00,West,274,0.0,5.1,-999,0.00,,---,0.00,VWS V14.01,2013-03-04 15:02:00,
2013-03-04 10:04:00,45.1,-99.9,-100.00,NW,305,0.0,5.3,-999,33.25,,---,0.00,VWS V14.01,2013-03-04 15:04:00,
2013-03-04 10:05:00,45.6,-99.9,-100.00,WNW,287,0.0,0.0,-999,0.00,,---,0.00,VWS V14.01,2013-03-04 15:05:00,
2013-03-04 10:06:00,45.6,-99.9,-100.00,WNW,287,0.0,0.0,-999,0.00,,---,0.00,VWS V14.01,2013-03-04 15:06:00,
2013-03-04 10:07:00,47.8,-99.9,-100.00,West,259,0.0,0.0,-999,0.00,,---,0.00,VWS V14.01,2013-03-04 15:07:00,
2013-03-04 10:09:00,46.3,-99.9,-100.00,WNW,294,0.0,3.2,-999,39.36,,---,0.00,VWS V14.01,2013-03-04 15:09:00,
2013-03-04 10:10:00,41.8,-99.9,-100.00,WSW,253,0.0,5.8,-999,0.00,,---,0.00,VWS V14.01,2013-03-04 15:10:00,
2013-03-04 10:11:00,42.8,-99.9,-100.00,WSW,253,3.4,3.4,-999,0.00,,---,0.00,VWS V14.01,2013-03-04 15:11:00,
2013-03-04 10:12:00,45.6,-99.9,-100.00,WSW,253,0.0,0.0,-999,0.00,,---,0.00,VWS V14.01,2013-03-04 15:12:00,
2013-03-04 10:14:00,48.6,-99.9,-100.00,SW,235,6.3,6.3,-999,0.00,,---,0.00,VWS V14.01,2013-03-04 15:14:00,
2013-03-04 10:16:00,52.3,-99.9,-100.00,WSW,253,0.0,5.2,-999,36.95,,---,0.00,VWS V14.01,2013-03-04 15:16:00,
2013-03-04 10:17:00,53.4,-99.9,-100.00,SW,233,0.0,3.2,-999,0.00,,---,0.00,VWS V14.01,2013-03-04 15:17:00,
2013-03-04 10:19:00,53.6,-99.9,-100.00,SW,233,0.0,0.0,-999,0.00,,---,0.00,VWS V14.01,2013-03-04 15:19:00,
2013-03-04 10:21:00,52.1,-99.9,-100.00,SW,235,0.0,4.9,-999,40.48,,---,0.00,VWS V14.01,2013-03-04 15:21:00,
2013-03-04 10:22:00,52.1,-99.9,-100.00,NE,39,7.1,7.1,-999,0.00,,---,0.00,VWS V14.01,2013-03-04 15:22:00,
2013-03-04 10:24:00,55.2,-99.9,-100.00,WNW,300,4.9,4.9,-999,0.19,,---,0.00,VWS V14.01,2013-03-04 15:24:00,
2013-03-04 10:26:00,53.1,-99.9,-100.00,SW,218,0.0,5.0,-999,12.48,,---,0.00,VWS V14.01,2013-03-04 15:26:00,
2013-03-04 10:27:00,55.2,-99.9,-100.00,SW,218,0.0,0.0,-999,0.00,,---,0.00,VWS V14.01,2013-03-04 15:27:00,
2013-03-04 10:29:00,50.9,-99.9,-100.00,WSW,246,0.0,5.7,-999,0.00,,---,0.00,VWS V14.01,2013-03-04 15:29:00,
2013-03-04 10:31:00,51.7,-99.9,-100.00,WSW,256,3.5,7.2,-999,0.00,,---,0.00,VWS V14.01,2013-03-04 15:31:00,
2013-03-04 10:32:00,54.4,-99.9,-100.00,NNE,18,0.0,0.0,-999,0.00,,---,0.01,VWS V14.01,2013-03-04 15:32:00,
2013-03-04 10:34:00,54.4,-99.9,-100.00,SW,229,7.4,7.4,-999,0.00,,---,0.01,VWS V14.01,2013-03-04 15:34:00,
2013-03-04 10:36:00,51.7,-99.9,-100.00,SW,232,0.0,0.0,-999,0.00,,---,0.02,VWS V14.01,2013-03-04 15:36:00,
2013-03-04 10:37:00,53.6,-99.9,-100.00,WSW,256,0.0,0.0,-999,2.08,,---,0.02,VWS V14.01,2013-03-04 15:37:00,
2013-03-04 10:40:00,47.8,-99.9,-100.00,South,173,3.4,3.4,-999,0.00,,---,0.02,VWS V14.01,2013-03-04 15:40:00,
2013-03-04 10:41:00,45.1,-99.9,-100.00,South,173,0.0,0.0,-999,0.00,,---,0.02,VWS V14.01,2013-03-04 15:41:00,
2013-03-04 10:42:00,41.6,-99.9,-100.00,SSW,208,0.0,2.3,-999,0.00,,---,0.03,VWS V14.01,2013-03-04 15:42:00,
2013-03-04 10:45:00,53.6,-99.9,-100.00,SW,224,0.0,0.0,-999,65.14,,---,0.03,VWS V14.01,2013-03-04 15:45:00,
2013-03-04 10:46:00,55.2,-99.9,-100.00,SW,224,0.0,0.0,-999,0.00,,---,0.03,VWS V14.01,2013-03-04 15:46:00,
2013-03-04 10:47:00,51.8,-99.9,-100.00,WSW,239,0.0,3.2,-999,0.00,,---,0.03,VWS V14.01,2013-03-04 15:47:00,
2013-03-04 10:50:00,45.6,-99.9,-100.00,WSW,239,0.0,0.0,-999,0.00,,---,0.03,VWS V14.01,2013-03-04 15:50:00,
2013-03-04 10:51:00,46.3,-99.9,-100.00,SW,232,6.6,6.6,-999,4.98,,---,0.03,VWS V14.01,2013-03-04 15:51:00,
2013-03-04 10:52:00,43.5,-99.9,-100.00,West,273,0.0,0.0,-999,0.00,,---,0.04,VWS V14.01,2013-03-04 15:52:00,
2013-03-04 10:55:00,43.3,-99.9,-100.00,West,273,0.0,0.0,-999,4.48,,---,0.04,VWS V14.01,2013-03-04 15:55:00,
2013-03-04 10:56:00,42.1,-99.9,-100.00,West,273,0.0,0.0,-999,55.36,,---,0.04,VWS V14.01,2013-03-04 15:56:00,
2013-03-04 10:57:00,44.6,-99.9,-100.00,West,273,0.0,0.0,-999,0.00,,---,0.04,VWS V14.01,2013-03-04 15:57:00,
2013-03-04 11:00:00,44.6,-99.9,-100.00,SW,233,0.0,4.3,-999,0.00,,---,0.05,VWS V14.01,2013-03-04 16:00:00,
2013-03-04 11:01:00,49.4,-99.9,-100.00,WSW,250,1.3,6.0,-999,0.64,,---,0.05,VWS V14.01,2013-03-04 16:01:00,
2013-03-04 11:02:00,47.8,-99.9,-100.00,West,280,0.0,3.4,-999,0.00,,---,0.05,VWS V14.01,2013-03-04 16:02:00,
2013-03-04 11:05:00,44.3,-99.9,-100.00,WSW,249,0.0,0.0,-999,0.00,,---,0.05,VWS V14.01,2013-03-04 16:05:00,
2013-03-04 11:06:00,41.1,-99.9,-100.00,WSW,249,0.0,0.0,-999,27.69,,---,0.06,VWS V14.01,2013-03-04 16:06:00,
2013-03-04 11:08:00,44.3,-99.9,-100.00,West,259,0.0,5.8,-999,0.00,,---,0.06,VWS V14.01,2013-03-04 16:08:00,
2013-03-04 11:10:00,45.6,-99.9,-100.00,WSW,243,0.0,5.5,-999,0.00,,---,0.06,VWS V14.01,2013-03-04 16:10:00,
2013-03-04 11:11:00,46.6,-99.9,-100.00,WSW,243,0.0,0.0,-999,27.05,,---,0.06,VWS V14.01,2013-03-04 16:11:00,
2013-03-04 11:12:00,48.3,-99.9,-100.00,WSW,243,0.0,0.0,-999,27.05,,---,0.06,VWS V14.01,2013-03-04 16:12:00,
2013-03-04 11:13:00,46.9,-99.9,-100.00,WSW,243,0.0,0.0,-999,0.00,,---,0.06,VWS V14.01,2013-03-04 16:13:00,
2013-03-04 11:15:00,42.5,-99.9,-100.00,WSW,248,0.0,6.3,-999,0.00,,---,0.06,VWS V14.01,2013-03-04 16:15:00,
2013-03-04 11:16:00,43.0,-99.9,-100.00,WSW,248,6.7,6.7,-999,0.00,,---,0.06,VWS V14.01,2013-03-04 16:16:00,
2013-03-04 11:17:00,43.3,-99.9,-100.00,SSW,207,4.7,6.7,-999,0.00,,---,0.06,VWS V14.01,2013-03-04 16:17:00,
2013-03-04 11:18:00,43.8,-99.9,-100.00,SW,228,0.0,0.0,-999,25.29,,---,0.06,VWS V14.01,2013-03-04 16:18:00,
2013-03-04 11:20:00,44.0,-99.9,-100.00,SSW,201,2.8,2.8,-999,65.14,,---,0.06,VWS V14.01,2013-03-04 16:20:00,
2013-03-04 11:21:00,44.0,-99.9,-100.00,SW,225,0.0,2.8,-999,36.95,,---,0.06,VWS V14.01,2013-03-04 16:21:00,
2013-03-04 11:22:00,43.3,-99.9,-100.00,WNW,284,8.7,8.7,-999,0.00,,---,0.06,VWS V14.01,2013-03-04 16:22:00,
2013-03-04 11:23:00,44.0,-99.9,-100.00,NNW,338,0.0,7.1,-999,0.00,,---,0.06,VWS V14.01,2013-03-04 16:23:00,
2013-03-04 11:26:00,48.6,-99.9,-100.00,South,191,3.4,5.4,-999,0.00,,---,0.06,VWS V14.01,2013-03-04 16:26:00,
2013-03-04 11:27:00,47.3,-99.9,-100.00,WSW,252,5.6,5.6,-999,0.00,,---,0.06,VWS V14.01,2013-03-04 16:27:00,
2013-03-04 11:28:00,47.8,-99.9,-100.00,NW,322,7.5,7.5,-999,0.00,,---,0.06,VWS V14.01,2013-03-04 16:28:00,
2013-03-04 11:31:00,40.8,-99.9,-100.00,NNW,335,0.0,5.8,-999,34.73,,---,0.06,VWS V14.01,2013-03-04 16:31:00,
2013-03-04 11:32:00,42.8,-99.9,-100.00,West,266,0.0,0.0,-999,57.60,,---,0.06,VWS V14.01,2013-03-04 16:32:00,
2013-03-04 11:33:00,44.3,-99.9,-100.00,West,266,0.0,0.0,-999,36.95,,---,0.06,VWS V14.01,2013-03-04 16:33:00,
2013-03-04 11:36:00,53.4,-99.9,-100.00,North,350,0.0,0.0,-999,39.21,,---,0.06,VWS V14.01,2013-03-04 16:36:00,
2013-03-04 11:37:00,56.0,-99.9,-100.00,South,174,3.2,3.2,-999,13.44,,---,0.06,VWS V14.01,2013-03-04 16:37:00,
2013-03-04 11:39:00,54.4,-99.9,-100.00,NNW,333,4.4,4.4,-999,0.00,,---,0.06,VWS V14.01,2013-03-04 16:39:00,
2013-03-04 11:41:00,53.9,-99.9,-100.00,North,359,6.5,6.5,-999,0.00,,---,0.06,VWS V14.01,2013-03-04 16:41:00,
2013-03-04 11:42:00,54.4,-99.9,-100.00,SW,232,0.0,5.1,-999,26.57,,---,0.06,VWS V14.01,2013-03-04 16:42:00,
2013-03-04 11:44:00,52.9,-99.9,-100.00,West,271,0.0,4.5,-999,0.00,,---,0.06,VWS V14.01,2013-03-04 16:44:00,
2013-03-04 11:46:00,46.9,-99.9,-100.00,SSW,204,0.0,4.4,-999,0.00,,---,0.07,VWS V14.01,2013-03-04 16:46:00,
2013-03-04 11:47:00,46.3,-99.9,-100.00,SSW,204,0.0,0.0,-999,0.00,,---,0.07,VWS V14.01,2013-03-04 16:47:00,
2013-03-04 11:49:00,42.3,-99.9,-100.00,SSW,204,0.0,0.0,-999,22.57,,---,0.07,VWS V14.01,2013-03-04 16:49:00,
2013-03-04 11:51:00,51.3,-99.9,-100.00,WSW,238,0.0,0.0,-999,0.00,,---,0.07,VWS V14.01,2013-03-04 16:51:00,
2013-03-04 11:52:00,55.2,-99.9,-100.00,West,259,3.2,5.4,-999,0.00,,---,0.07,VWS V14.01,2013-03-04 16:52:00,
2013-03-04 11:54:00,57.9,-99.9,-100.00,North,356,5.2,5.2,-999,25.93,,---,0.07,VWS V14.01,2013-03-04 16:54:00,
2013-03-04 11:56:00,49.9,-99.9,-100.00,WSW,248,0.0,0.0,-999,0.00,,---,0.07,VWS V14.01,2013-03-04 16:56:00,
2013-03-04 11:57:00,47.1,-99.9,-100.00,South,172,0.0,0.0,-999,0.00,,---,0.07,VWS V14.01,2013-03-04 16:57:00,
2013-03-04 11:59:00,46.3,-99.9,-100.00,South,172,0.0,0.0,-999,0.00,,---,0.07,VWS V14.01,2013-03-04 16:59:00,
2013-03-04 12:01:00,48.6,-99.9,-100.00,WNW,290,0.0,3.3,-999,0.00,,---,0.07,VWS V14.01,2013-03-04 17:01:00,
2013-03-04 12:02:00,52.9,-99.9,-100.00,WSW,248,0.0,2.4,-999,0.00,,---,0.07,VWS V14.01,2013-03-04 17:02:00,
2013-03-04 12:04:00,54.9,-99.9,-100.00,WSW,248,0.0,0.0,-999,0.00,,---,0.07,VWS V14.01,2013-03-04 17:04:00,
2013-03-04 12:06:00,57.6,-99.9,-100.00,WSW,248,0.0,0.0,-999,0.00,,---,0.07,VWS V14.01,2013-03-04 17:06:00,
2013-03-04 12:07:00,57.9,-99.9,-100.00,WSW,248,0.0,0.0,-999,0.00,,---,0.07,VWS V14.01,2013-03-04 17:07:00,
2013-03-04 12:09:00,47.1,-99.9,-100.00,West,260,0.0,6.3,-999,0.00,,---,0.07,VWS V14.01,2013-03-04 17:09:00,
2013-03-04 12:11:00,43.0,-99.9,-100.00,West,260,0.0,0.0,-999,28.97,,---,0.08,VWS V14.01,2013-03-04 17:11:00,
2013-03-04 12:12:00,43.0,-99.9,-100.00,West,260,0.0,0.0,-999,28.97,,---,0.08,VWS V14.01,2013-03-04 17:12:00,
2013-03-04 12:14:00,51.6,-99.9,-100.00,North,359,0.0,9.7,-999,0.00,,---,0.08,VWS V14.01,2013-03-04 17:14:00,
2013-03-04 12:16:00,51.2,-99.9,-100.00,WNW,302,0.0,0.0,-999,0.00,,---,0.08,VWS V14.01,2013-03-04 17:16:00,
2013-03-04 12:17:00,51.2,-99.9,-100.00,WNW,302,0.0,0.0,-999,0.00,,---,0.08,VWS V14.01,2013-03-04 17:17:00,
2013-03-04 12:19:00,56.8,-99.9,-100.00,WSW,240,4.3,5.1,-999,56.00,,---,0.08,VWS V14.01,2013-03-04 17:19:00,
2013-03-04 12:22:00,52.9,-99.9,-100.00,SW,231,0.0,4.7,-999,0.00,,---,0.08,VWS V14.01,2013-03-04 17:22:00,
2013-03-04 12:24:00,55.5,-99.9,-100.00,NW,311,0.0,6.3,-999,26.89,,---,0.08,VWS V14.01,2013-03-04 17:24:00,
2013-03-04 12:27:00,53.4,-99.9,-100.00,SW,228,0.0,5.0,-999,2.21,,---,0.08,VWS V14.01,2013-03-04 17:27:00,
2013-03-04 12:30:00,52.7,-99.9,-100.00,WSW,238,2.1,3.1,-999,0.00,,---,0.08,VWS V14.01,2013-03-04 17:30:00,
2013-03-04 12:32:00,50.1,-99.9,-100.00,West,259,0.0,0.0,-999,46.56,,---,0.08,VWS V14.01,2013-03-04 17:32:00,
2013-03-04 12:33:00,49.9,-99.9,-100.00,West,259,0.0,0.0,-999,0.00,,---,0.08,VWS V14.01,2013-03-04 17:33:00,
2013-03-04 12:35:00,50.8,-99.9,-100.00,SW,222,4.5,6.7,-999,0.00,,---,0.08,VWS V14.01,2013-03-04 17:35:00,
2013-03-04 12:37:00,48.1,-99.9,-100.00,SW,217,0.0,5.5,-999,0.00,,---,0.08,VWS V14.01,2013-03-04 17:37:00,
2013-03-04 12:38:00,46.9,-99.9,-100.00,WSW,240,5.3,5.3,-999,1.30,,---,0.08,VWS V14.01,2013-03-04 17:38:00,
2013-03-04 12:40:00,45.8,-99.9,-100.00,SW,236,0.0,0.0,-999,40.61,,---,0.08,VWS V14.01,2013-03-04 17:40:00,
2013-03-04 12:42:00,43.3,-99.9,-100.00,SW,236,0.0,0.0,-999,0.00,,---,0.08,VWS V14.01,2013-03-04 17:42:00,
2013-03-04 12:43:00,45.3,-99.9,-100.00,SW,236,0.0,0.0,-999,54.72,,---,0.08,VWS V14.01,2013-03-04 17:43:00,
2013-03-04 12:45:00,48.6,-99.9,-100.00,SW,236,0.0,0.0,-999,0.00,,---,0.09,VWS V14.01,2013-03-04 17:45:00,
2013-03-04 12:47:00,49.4,-99.9,-100.00,SW,214,0.0,2.7,-999,0.00,,---,0.09,VWS V14.01,2013-03-04 17:47:00,
2013-03-04 12:48:00,48.6,-99.9,-100.00,SW,214,0.0,0.0,-999,1.12,,---,0.09,VWS V14.01,2013-03-04 17:48:00,
2013-03-04 12:50:00,45.3,-99.9,-100.00,WSW,238,0.0,6.3,-999,58.72,,---,0.09,VWS V14.01,2013-03-04 17:50:00,
2013-03-04 12:52:00,41.1,-99.9,-100.00,SSW,201,0.0,0.0,-999,0.00,,---,0.09,VWS V14.01,2013-03-04 17:52:00,
2013-03-04 12:53:00,43.0,-99.9,-100.00,SSW,201,0.0,0.0,-999,0.00,,---,0.09,VWS V14.01,2013-03-04 17:53:00,
2013-03-04 12:55:00,45.3,-99.9,-100.00,SSW,201,0.0,3.5,-999,0.00,,---,0.09,VWS V14.01,2013-03-04 17:55:00,
2013-03-04 12:57:00,44.3,-99.9,-100.00,WSW,250,0.0,5.3,-999,0.00,,---,0.09,VWS V14.01,2013-03-04 17:57:00,
2013-03-04 12:59:00,42.5,-99.9,-100.00,West,271,6.0,6.6,-999,0.00,,---,0.09,VWS V14.01,2013-03-04 17:59:00,
2013-03-04 13:00:00,41.1,-99.9,-100.00,West,266,0.0,0.0,-999,10.72,,---,0.09,VWS V14.01,2013-03-04 18:00:00,
2013-03-04 13:02:00,39.8,-99.9,-100.00,West,266,0.0,0.0,-999,21.09,,---,0.09,VWS V14.01,2013-03-04 18:02:00,
2013-03-04 13:03:00,40.3,-99.9,-100.00,West,266,0.0,0.0,-999,40.61,,---,0.09,VWS V14.01,2013-03-04 18:03:00,
2013-03-04 13:04:00,40.3,-99.9,-100.00,West,259,6.0,6.0,-999,40.61,,---,0.09,VWS V14.01,2013-03-04 18:04:00,
2013-03-04 13:05:00,39.5,-99.9,-100.00,West,259,0.0,0.0,-999,0.00,,---,0.09,VWS V14.01,2013-03-04 18:05:00,
2013-03-04 13:08:00,46.3,-99.9,-100.00,NW,304,5.3,5.3,-999,53.76,,---,0.09,VWS V14.01,2013-03-04 18:08:00,
2013-03-04 13:09:00,44.0,-99.9,-100.00,WNW,292,0.0,5.8,-999,0.00,,---,0.09,VWS V14.01,2013-03-04 18:09:00,
2013-03-04 13:10:00,42.5,-99.9,-100.00,WNW,292,0.0,0.0,-999,0.00,,---,0.09,VWS V14.01,2013-03-04 18:10:00,
2013-03-04 13:13:00,39.3,-99.9,-100.00,WNW,292,0.0,0.0,-999,3.68,,---,0.09,VWS V14.01,2013-03-04 18:13:00,
2013-03-04 13:14:00,40.3,-99.9,-100.00,NW,309,5.4,5.4,-999,36.95,,---,0.09,VWS V14.01,2013-03-04 18:14:00,
2013-03-04 13:15:00,40.3,-99.9,-100.00,North,350,0.0,5.4,-999,40.61,,---,0.09,VWS V14.01,2013-03-04 18:15:00,
2013-03-04 13:18:00,41.8,-99.9,-100.00,NNW,339,0.0,4.7,-999,5.44,,---,0.09,VWS V14.01,2013-03-04 18:18:00,
2013-03-04 13:19:00,41.1,-99.9,-100.00,NNW,339,0.0,0.0,-999,78.26,,---,0.09,VWS V14.01,2013-03-04 18:19:00,
2013-03-04 13:20:00,40.1,-99.9,-100.00,West,276,0.0,0.0,-999,0.00,,---,0.09,VWS V14.01,2013-03-04 18:20:00,
2013-03-04 13:23:00,39.5,-99.9,-100.00,WSW,246,0.0,0.0,-999,0.00,,---,0.09,VWS V14.01,2013-03-04 18:23:00,
2013-03-04 13:24:00,39.5,-99.9,-100.00,WSW,246,0.0,0.0,-999,0.48,,---,0.09,VWS V14.01,2013-03-04 18:24:00,
2013-03-04 13:25:00,40.1,-99.9,-100.00,WSW,246,0.0,0.0,-999,54.40,,---,0.09,VWS V14.01,2013-03-04 18:25:00,
2013-03-04 13:28:00,40.8,-99.9,-100.00,WSW,246,0.0,0.0,-999,0.00,,---,0.09,VWS V14.01,2013-03-04 18:28:00,
2013-03-04 13:29:00,41.8,-99.9,-100.00,SW,215,0.0,4.9,-999,10.24,,---,0.09,VWS V14.01,2013-03-04 18:29:00,
2013-03-04 13:34:00,46.3,-99.9,-100.00,WNW,297,3.2,3.2,-999,0.00,,---,0.10,VWS V14.01,2013-03-04 18:34:00,
2013-03-04 13:35:00,46.9,-99.9,-100.00,North,7,3.4,3.4,-999,0.00,,---,0.10,VWS V14.01,2013-03-04 18:35:00,
2013-03-04 13:39:00,47.8,-99.9,-100.00,North,359,2.5,4.7,-999,0.00,,---,0.10,VWS V14.01,2013-03-04 18:39:00,
2013-03-04 13:40:00,47.8,-99.9,-100.00,NW,325,4.8,4.8,-999,0.00,,---,0.10,VWS V14.01,2013-03-04 18:40:00,
2013-03-04 13:44:00,49.1,-99.9,-100.00,WSW,253,4.6,4.6,-999,0.00,,---,0.10,VWS V14.01,2013-03-04 18:44:00,
2013-03-04 13:45:00,49.1,-99.9,-100.00,WSW,253,4.6,4.6,-999,0.00,,---,0.10,VWS V14.01,2013-03-04 18:45:00,
2013-03-04 13:49:00,47.5,-99.9,-100.00,WSW,243,0.0,0.0,-999,0.00,,---,0.10,VWS V14.01,2013-03-04 18:49:00,
2013-03-04 13:50:00,47.5,-99.9,-100.00,WSW,243,0.0,0.0,-999,0.00,,---,0.10,VWS V14.01,2013-03-04 18:50:00,
2013-03-04 13:55:00,47.5,-99.9,-100.00,West,271,0.0,3.5,-999,0.00,,---,0.10,VWS V14.01,2013-03-04 18:55:00,
2013-03-04 14:00:00,49.4,-99.9,-100.00,West,260,4.3,6.3,-999,27.85,,---,0.10,VWS V14.01,2013-03-04 19:00:00,
2013-03-04 14:05:00,45.6,-99.9,-100.00,WSW,257,0.0,0.0,-999,28.65,,---,0.10,VWS V14.01,2013-03-04 19:05:00,
2013-03-04 14:10:00,44.8,-99.9,-100.00,SW,217,0.0,6.0,-999,0.00,,---,0.10,VWS V14.01,2013-03-04 19:10:00,
2013-03-04 14:15:00,43.8,-99.9,-100.00,North,359,0.0,6.5,-999,0.00,,---,0.10,VWS V14.01,2013-03-04 19:15:00,
2013-03-04 14:20:00,44.3,-99.9,-100.00,SW,224,0.0,3.5,-999,36.95,,---,0.10,VWS V14.01,2013-03-04 19:20:00,
2013-03-04 14:25:00,43.3,-99.9,-100.00,West,266,5.8,5.8,-999,53.92,,---,0.10,VWS V14.01,2013-03-04 19:25:00,
2013-03-04 14:30:00,42.5,-99.9,-100.00,NW,318,3.2,6.3,-999,0.00,,---,0.11,VWS V14.01,2013-03-04 19:30:00,
2013-03-04 14:35:00,43.3,-99.9,-100.00,West,260,0.0,5.3,-999,28.97,,---,0.11,VWS V14.01,2013-03-04 19:35:00,
2013-03-04 14:36:00,42.5,-99.9,-100.00,SSW,195,4.3,5.3,-999,28.97,,---,0.11,VWS V14.01,2013-03-04 19:36:00,
2013-03-04 14:40:00,42.5,-99.9,-100.00,WSW,256,0.0,0.0,-999,0.00,,---,0.11,VWS V14.01,2013-03-04 19:40:00,
2013-03-04 14:41:00,42.5,-99.9,-100.00,West,267,5.0,5.0,-999,28.49,,---,0.11,VWS V14.01,2013-03-04 19:41:00,
2013-03-04 14:45:00,40.6,-99.9,-100.00,West,267,0.0,6.8,-999,0.00,,---,0.11,VWS V14.01,2013-03-04 19:45:00,
2013-03-04 14:46:00,40.2,-99.9,-100.00,West,267,0.0,0.0,-999,0.00,,---,0.11,VWS V14.01,2013-03-04 19:46:00,
2013-03-04 14:50:00,41.8,-99.9,-100.00,NNW,335,3.2,3.2,-999,40.61,,---,0.11,VWS V14.01,2013-03-04 19:50:00,
2013-03-04 14:51:00,41.8,-99.9,-100.00,SW,219,0.0,3.2,-999,0.00,,---,0.11,VWS V14.01,2013-03-04 19:51:00,
2013-03-04 14:56:00,40.6,-99.9,-100.00,NW,309,0.0,0.0,-999,0.00,,---,0.11,VWS V14.01,2013-03-04 19:56:00,
2013-03-04 15:01:00,41.8,-99.9,-100.00,NNE,22,0.0,0.0,-999,53.44,,---,0.11,VWS V14.01,2013-03-04 20:01:00,
2013-03-04 15:06:00,41.2,-99.9,-100.00,NE,55,0.0,6.5,-999,0.00,,---,0.11,VWS V14.01,2013-03-04 20:06:00,
2013-03-04 15:11:00,41.8,-99.9,-100.00,West,259,0.0,0.0,-999,28.81,,---,0.12,VWS V14.01,2013-03-04 20:11:00,
2013-03-04 15:16:00,38.7,-99.9,-100.00,WSW,255,3.1,5.5,-999,0.00,,---,0.12,VWS V14.01,2013-03-04 20:16:00,
2013-03-04 15:21:00,40.0,-99.9,-100.00,SW,232,4.2,4.2,-999,0.00,,---,0.12,VWS V14.01,2013-03-04 20:21:00,
2013-03-04 15:26:00,40.5,-99.9,-100.00,NNW,332,0.0,6.1,-999,36.95,,---,0.12,VWS V14.01,2013-03-04 20:26:00,
2013-03-04 15:31:00,39.7,-99.9,-100.00,West,259,7.3,7.3,-999,29.92,,---,0.12,VWS V14.01,2013-03-04 20:31:00,
2013-03-04 15:32:00,39.7,-99.9,-100.00,SW,236,3.4,4.3,-999,0.00,,---,0.12,VWS V14.01,2013-03-04 20:32:00,
2013-03-04 15:36:00,40.2,-99.9,-100.00,WSW,249,0.0,0.0,-999,0.00,,---,0.12,VWS V14.01,2013-03-04 20:36:00,
2013-03-04 15:37:00,40.2,-99.9,-100.00,WNW,298,1.3,4.4,-999,52.32,,---,0.12,VWS V14.01,2013-03-04 20:37:00,
2013-03-04 15:41:00,40.7,-99.9,-100.00,West,266,0.0,2.8,-999,1.12,,---,0.12,VWS V14.01,2013-03-04 20:41:00,
2013-03-04 15:42:00,40.5,-99.9,-100.00,West,266,0.0,0.0,-999,1.12,,---,0.12,VWS V14.01,2013-03-04 20:42:00,
2013-03-04 15:46:00,39.2,-99.9,-100.00,WSW,253,0.0,7.1,-999,0.00,,---,0.12,VWS V14.01,2013-03-04 20:46:00,
2013-03-04 15:47:00,38.7,-99.9,-100.00,WSW,253,0.0,7.1,-999,0.00,,---,0.12,VWS V14.01,2013-03-04 20:47:00,
2013-03-04 15:51:00,40.0,-99.9,-100.00,West,273,0.0,0.0,-999,0.00,,---,0.12,VWS V14.01,2013-03-04 20:51:00,
2013-03-04 15:52:00,40.0,-99.9,-100.00,WNW,288,4.3,4.3,-999,0.00,,---,0.12,VWS V14.01,2013-03-04 20:52:00,
2013-03-04 15:56:00,39.0,-99.9,-100.00,WSW,255,0.0,4.7,-999,0.00,,---,0.12,VWS V14.01,2013-03-04 20:56:00,
2013-03-04 15:57:00,39.2,-99.9,-100.00,WSW,255,0.0,0.0,-999,0.00,,---,0.12,VWS V14.01,2013-03-04 20:57:00,
2013-03-04 16:01:00,40.5,-99.9,-100.00,WSW,255,0.0,0.0,-999,0.00,,---,0.12,VWS V14.01,2013-03-04 21:01:00,
2013-03-04 16:02:00,40.5,-99.9,-100.00,WSW,255,0.0,0.0,-999,0.00,,---,0.12,VWS V14.01,2013-03-04 21:02:00,
2013-03-04 16:06:00,38.5,-99.9,-100.00,West,262,0.0,0.0,-999,78.26,,---,0.12,VWS V14.01,2013-03-04 21:06:00,
2013-03-04 16:07:00,38.5,-99.9,-100.00,SW,226,3.2,3.2,-999,65.14,,---,0.12,VWS V14.01,2013-03-04 21:07:00,
2013-03-04 16:11:00,38.5,-99.9,-100.00,West,259,4.4,4.4,-999,5.44,,---,0.12,VWS V14.01,2013-03-04 21:11:00,
2013-03-04 16:12:00,38.5,-99.9,-100.00,West,259,0.0,4.4,-999,0.00,,---,0.12,VWS V14.01,2013-03-04 21:12:00,
2013-03-04 16:16:00,38.0,-99.9,-100.00,West,269,0.0,3.0,-999,0.00,,---,0.12,VWS V14.01,2013-03-04 21:16:00,
2013-03-04 16:17:00,38.5,-99.9,-100.00,West,269,0.0,3.0,-999,0.00,,---,0.12,VWS V14.01,2013-03-04 21:17:00,
2013-03-04 16:21:00,37.8,-99.9,-100.00,WSW,248,0.0,0.0,-999,0.00,,---,0.12,VWS V14.01,2013-03-04 21:21:00,
2013-03-04 16:22:00,37.8,-99.9,-100.00,WSW,248,0.0,0.0,-999,0.00,,---,0.12,VWS V14.01,2013-03-04 21:22:00,
2013-03-04 16:26:00,38.5,-99.9,-100.00,West,281,0.0,0.0,-999,0.00,,---,0.12,VWS V14.01,2013-03-04 21:26:00,
2013-03-04 16:27:00,38.7,-99.9,-100.00,West,281,0.0,0.0,-999,0.00,,---,0.12,VWS V14.01,2013-03-04 21:27:00,
2013-03-04 16:28:00,38.5,-99.9,-100.00,West,281,0.0,0.0,-999,21.90,,---,0.12,VWS V14.01,2013-03-04 21:28:00,
2013-03-04 16:31:00,37.8,-99.9,-100.00,SW,231,0.0,0.0,-999,0.00,,---,0.12,VWS V14.01,2013-03-04 21:31:00,
2013-03-04 16:32:00,37.8,-99.9,-100.00,SW,231,0.0,0.0,-999,0.00,,---,0.12,VWS V14.01,2013-03-04 21:32:00,
2013-03-04 16:33:00,37.8,-99.9,-100.00,SW,231,0.0,0.0,-999,0.00,,---,0.12,VWS V14.01,2013-03-04 21:33:00,
2013-03-04 16:36:00,38.0,-99.9,-100.00,SW,231,0.0,0.0,-999,53.60,,---,0.12,VWS V14.01,2013-03-04 21:36:00,
2013-03-04 16:37:00,38.0,-99.9,-100.00,SW,231,3.5,3.5,-999,0.00,,---,0.12,VWS V14.01,2013-03-04 21:37:00,
2013-03-04 16:38:00,37.5,-99.9,-100.00,West,280,0.0,0.0,-999,0.00,,---,0.12,VWS V14.01,2013-03-04 21:38:00,
2013-03-04 16:42:00,38.0,-99.9,-100.00,West,280,0.0,0.0,-999,0.00,,---,0.12,VWS V14.01,2013-03-04 21:42:00,
2013-03-04 16:43:00,37.0,-99.9,-100.00,North,359,5.9,5.9,-999,65.14,,---,0.12,VWS V14.01,2013-03-04 21:43:00,
2013-03-04 16:47:00,36.8,-99.9,-100.00,WNW,292,0.0,0.0,-999,32.65,,---,0.12,VWS V14.01,2013-03-04 21:47:00,
2013-03-04 16:48:00,36.3,-99.9,-100.00,West,263,3.0,3.0,-999,0.00,,---,0.12,VWS V14.01,2013-03-04 21:48:00,
2013-03-04 16:52:00,35.7,-99.9,-100.00,WNW,287,0.0,2.8,-999,32.01,,---,0.12,VWS V14.01,2013-03-04 21:52:00,
2013-03-04 16:53:00,35.3,-99.9,-100.00,WSW,253,0.0,0.0,-999,0.00,,---,0.12,VWS V14.01,2013-03-04 21:53:00,
2013-03-04 16:54:00,35.5,-99.9,-100.00,WSW,253,0.0,0.0,-999,0.00,,---,0.12,VWS V14.01,2013-03-04 21:54:00,
2013-03-04 16:57:00,36.3,-99.9,-100.00,WSW,253,0.0,0.0,-999,0.00,,---,0.12,VWS V14.01,2013-03-04 21:57:00,
2013-03-04 16:58:00,36.3,-99.9,-100.00,WSW,253,0.0,0.0,-999,28.17,,---,0.12,VWS V14.01,2013-03-04 21:58:00,
2013-03-04 16:59:00,35.7,-99.9,-100.00,WSW,242,0.0,0.0,-999,28.17,,---,0.12,VWS V14.01,2013-03-04 21:59:00,
2013-03-04 17:02:00,36.0,-99.9,-100.00,WSW,242,0.0,0.0,-999,40.61,,---,0.12,VWS V14.01,2013-03-04 22:02:00,
2013-03-04 17:03:00,36.0,-99.9,-100.00,WSW,242,0.0,0.0,-999,0.00,,---,0.12,VWS V14.01,2013-03-04 22:03:00,
2013-03-04 17:04:00,35.5,-99.9,-100.00,WSW,239,0.0,3.5,-999,26.57,,---,0.12,VWS V14.01,2013-03-04 22:04:00,
2013-03-04 17:07:00,35.5,-99.9,-100.00,WNW,291,0.0,0.0,-999,36.95,,---,0.12,VWS V14.01,2013-03-04 22:07:00,
2013-03-04 17:08:00,35.3,-99.9,-100.00,WNW,291,0.0,0.0,-999,0.00,,---,0.12,VWS V14.01,2013-03-04 22:08:00,
2013-03-04 17:09:00,34.8,-99.9,-100.00,NNW,347,0.0,4.2,-999,0.00,,---,0.12,VWS V14.01,2013-03-04 22:09:00,
2013-03-04 17:12:00,34.3,-99.9,-100.00,SW,233,4.8,4.8,-999,0.00,,---,0.12,VWS V14.01,2013-03-04 22:12:00,
2013-03-04 17:13:00,34.0,-99.9,-100.00,SSW,201,0.0,4.8,-999,0.00,,---,0.12,VWS V14.01,2013-03-04 22:13:00,
2013-03-04 17:14:00,34.0,-99.9,-100.00,SSW,201,0.0,0.0,-999,0.00,,---,0.12,VWS V14.01,2013-03-04 22:14:00,
2013-03-04 17:17:00,34.0,-99.9,-100.00,North,356,4.5,7.1,-999,0.00,,---,0.12,VWS V14.01,2013-03-04 22:17:00,
2013-03-04 17:18:00,34.0,-99.9,-100.00,NNW,345,0.0,7.1,-999,56.64,,---,0.12,VWS V14.01,2013-03-04 22:18:00,
2013-03-04 17:19:00,34.0,-99.9,-100.00,NNW,345,0.0,0.0,-999,0.00,,---,0.12,VWS V14.01,2013-03-04 22:19:00,
2013-03-04 17:22:00,33.5,-99.9,-100.00,NNW,345,0.0,0.0,-999,38.57,,---,0.12,VWS V14.01,2013-03-04 22:22:00,
2013-03-04 17:23:00,33.5,-99.9,-100.00,NNW,345,0.0,0.0,-999,11.04,,---,0.12,VWS V14.01,2013-03-04 22:23:00,
2013-03-04 17:24:00,33.8,-99.9,-100.00,NNW,345,0.0,0.0,-999,0.00,,---,0.12,VWS V14.01,2013-03-04 22:24:00,
2013-03-04 17:27:00,32.5,-99.9,-100.00,NNW,345,0.0,0.0,-999,0.00,,---,0.12,VWS V14.01,2013-03-04 22:27:00,
2013-03-04 17:28:00,32.3,-99.9,-100.00,NNW,345,0.0,0.0,-999,38.57,,---,0.12,VWS V14.01,2013-03-04 22:28:00,
2013-03-04 17:30:00,32.5,-99.9,-100.00,NNW,345,0.0,0.0,-999,49.92,,---,0.12,VWS V14.01,2013-03-04 22:30:00,
2013-03-04 17:32:00,32.5,-99.9,-100.00,NNW,345,0.0,0.0,-999,0.00,,---,0.12,VWS V14.01,2013-03-04 22:32:00,
2013-03-04 17:33:00,32.5,-99.9,-100.00,NNW,345,0.0,0.0,-999,0.00,,---,0.12,VWS V14.01,2013-03-04 22:33:00,
2013-03-04 17:35:00,31.7,-99.9,-100.00,NNW,345,0.0,0.0,-999,12.96,,---,0.12,VWS V14.01,2013-03-04 22:35:00,
2013-03-04 17:37:00,31.5,-99.9,-100.00,NNW,345,0.0,0.0,-999,28.77,,---,0.12,VWS V14.01,2013-03-04 22:37:00,
2013-03-04 17:38:00,31.3,-99.9,-100.00,NNW,345,0.0,0.0,-999,0.00,,---,0.12,VWS V14.01,2013-03-04 22:38:00,
2013-03-04 17:39:00,31.0,-99.9,-100.00,West,271,3.3,8.4,-999,0.00,,---,0.12,VWS V14.01,2013-03-04 22:39:00,
2013-03-04 17:40:00,31.5,-99.9,-100.00,WNW,298,0.0,4.6,-999,2.08,,---,0.12,VWS V14.01,2013-03-04 22:40:00,
2013-03-04 17:42:00,31.3,-99.9,-100.00,WNW,298,0.0,0.0,-999,0.00,,---,0.12,VWS V14.01,2013-03-04 22:42:00,
2013-03-04 17:43:00,31.0,-99.9,-100.00,WNW,298,0.0,0.0,-999,0.00,,---,0.12,VWS V14.01,2013-03-04 22:43:00,
2013-03-04 17:44:00,31.0,-99.9,-100.00,WNW,298,0.0,0.0,-999,0.00,,---,0.12,VWS V14.01,2013-03-04 22:44:00,
2013-03-04 17:45:00,30.8,-99.9,-100.00,WNW,298,0.0,0.0,-999,33.29,,---,0.12,VWS V14.01,2013-03-04 22:45:00,
2013-03-04 17:47:00,30.3,-99.9,-100.00,WNW,298,0.0,0.0,-999,0.00,,---,0.12,VWS V14.01,2013-03-04 22:47:00,
2013-03-04 17:48:00,30.3,-99.9,-100.00,WNW,298,0.0,0.0,-999,0.00,,---,0.12,VWS V14.01,2013-03-04 22:48:00,
2013-03-04 17:49:00,30.3,-99.9,-100.00,WNW,298,0.0,0.0,-999,7.33,,---,0.12,VWS V14.01,2013-03-04 22:49:00,
2013-03-04 17:50:00,30.3,-99.9,-100.00,WNW,298,0.0,0.0,-999,0.00,,---,0.12,VWS V14.01,2013-03-04 22:50:00,
2013-03-04 17:52:00,30.0,-99.9,-100.00,WNW,298,0.0,0.0,-999,1.28,,---,0.12,VWS V14.01,2013-03-04 22:52:00,
2013-03-04 17:53:00,29.8,-99.9,-100.00,WNW,298,0.0,0.0,-999,49.28,,---,0.12,VWS V14.01,2013-03-04 22:53:00,
2013-03-04 17:54:00,29.5,-99.9,-100.00,WNW,298,0.0,0.0,-999,36.16,,---,0.12,VWS V14.01,2013-03-04 22:54:00,
2013-03-04 17:55:00,29.8,-99.9,-100.00,WNW,298,0.0,0.0,-999,0.00,,---,0.12,VWS V14.01,2013-03-04 22:55:00,
2013-03-04 17:57:00,29.5,-99.9,-100.00,WNW,298,0.0,0.0,-999,0.00,,---,0.12,VWS V14.01,2013-03-04 22:57:00,
2013-03-04 17:58:00,29.5,-99.9,-100.00,WNW,298,0.0,0.0,-999,5.12,,---,0.12,VWS V14.01,2013-03-04 22:58:00,
2013-03-04 17:59:00,29.8,-99.9,-100.00,WNW,298,0.0,0.0,-999,0.00,,---,0.12,VWS V14.01,2013-03-04 22:59:00,
2013-03-04 18:00:00,29.5,-99.9,-100.00,WNW,298,0.0,0.0,-999,36.95,,---,0.12,VWS V14.01,2013-03-04 23:00:00,
2013-03-04 18:03:00,29.6,-99.9,-100.00,WNW,298,0.0,0.0,-999,0.00,,---,0.12,VWS V14.01,2013-03-04 23:03:00,
2013-03-04 18:04:00,29.6,-99.9,-100.00,WNW,298,0.0,0.0,-999,6.72,,---,0.12,VWS V14.01,2013-03-04 23:04:00,
2013-03-04 18:06:00,29.8,-99.9,-100.00,WNW,298,0.0,0.0,-999,54.72,,---,0.12,VWS V14.01,2013-03-04 23:06:00,
2013-03-04 18:08:00,29.5,-99.9,-100.00,WNW,298,0.0,0.0,-999,0.00,,---,0.12,VWS V14.01,2013-03-04 23:08:00,
2013-03-04 18:09:00,29.2,-99.9,-100.00,WNW,298,0.0,0.0,-999,0.00,,---,0.12,VWS V14.01,2013-03-04 23:09:00,
2013-03-04 18:11:00,29.2,-99.9,-100.00,WNW,298,0.0,0.0,-999,0.00,,---,0.12,VWS V14.01,2013-03-04 23:11:00,
2013-03-04 18:13:00,29.2,-99.9,-100.00,WNW,298,0.0,0.0,-999,40.61,,---,0.12,VWS V14.01,2013-03-04 23:13:00,
2013-03-04 18:14:00,29.2,-99.9,-100.00,WNW,298,0.0,0.0,-999,0.00,,---,0.12,VWS V14.01,2013-03-04 23:14:00,
2013-03-04 18:15:00,29.5,-99.9,-100.00,WNW,298,0.0,0.0,-999,0.00,,---,0.12,VWS V14.01,2013-03-04 23:15:00,
2013-03-04 18:16:00,29.0,-99.9,-100.00,WNW,298,0.0,0.0,-999,11.04,,---,0.12,VWS V14.01,2013-03-04 23:16:00,
2013-03-04 18:18:00,28.8,-99.9,-100.00,WNW,298,0.0,0.0,-999,45.92,,---,0.12,VWS V14.01,2013-03-04 23:18:00,
2013-03-04 18:19:00,29.0,-99.9,-100.00,WNW,298,0.0,0.0,-999,0.00,,---,0.12,VWS V14.01,2013-03-04 23:19:00,
2013-03-04 18:20:00,29.0,-99.9,-100.00,WNW,298,0.0,0.0,-999,0.00,,---,0.12,VWS V14.01,2013-03-04 23:20:00,
2013-03-04 18:21:00,28.5,-99.9,-100.00,WNW,298,0.0,0.0,-999,0.00,,---,0.12,VWS V14.01,2013-03-04 23:21:00,
2013-03-04 18:23:00,28.5,-99.9,-100.00,WNW,298,0.0,0.0,-999,0.00,,---,0.12,VWS V14.01,2013-03-04 23:23:00,
2013-03-04 18:24:00,28.2,-99.9,-100.00,WNW,298,0.0,0.0,-999,0.00,,---,0.12,VWS V14.01,2013-03-04 23:24:00,
2013-03-04 18:25:00,28.5,-99.9,-100.00,WNW,298,0.0,0.0,-999,36.95,,---,0.12,VWS V14.01,2013-03-04 23:25:00,
2013-03-04 18:26:00,28.2,-99.9,-100.00,WNW,298,0.0,0.0,-999,0.00,,---,0.12,VWS V14.01,2013-03-04 23:26:00,
2013-03-04 18:28:00,28.5,-99.9,-100.00,WNW,298,0.0,0.0,-999,0.00,,---,0.12,VWS V14.01,2013-03-04 23:28:00,
2013-03-04 18:29:00,28.5,-99.9,-100.00,WNW,298,0.0,0.0,-999,0.00,,---,0.12,VWS V14.01,2013-03-04 23:29:00,
2013-03-04 18:30:00,28.2,-99.9,-100.00,WNW,298,0.0,0.0,-999,29.60,,---,0.12,VWS V14.01,2013-03-04 23:30:00,
2013-03-04 18:31:00,28.2,-99.9,-100.00,WNW,298,0.0,0.0,-999,0.00,,---,0.12,VWS V14.01,2013-03-04 23:31:00,
2013-03-04 18:33:00,28.0,-99.9,-100.00,WNW,298,0.0,0.0,-999,0.00,,---,0.12,VWS V14.01,2013-03-04 23:33:00,
2013-03-04 18:34:00,28.0,-99.9,-100.00,WNW,298,0.0,0.0,-999,0.00,,---,0.12,VWS V14.01,2013-03-04 23:34:00,
2013-03-04 18:35:00,28.2,-99.9,-100.00,WNW,298,0.0,0.0,-999,0.00,,---,0.12,VWS V14.01,2013-03-04 23:35:00,
2013-03-04 18:37:00,27.7,-99.9,-100.00,WNW,298,0.0,0.0,-999,36.95,,---,0.12,VWS V14.01,2013-03-04 23:37:00,
2013-03-04 18:38:00,28.0,-99.9,-100.00,WNW,298,0.0,0.0,-999,0.00,,---,0.12,VWS V14.01,2013-03-04 23:38:00,
2013-03-04 18:39:00,27.7,-99.9,-100.00,WNW,298,0.0,0.0,-999,0.00,,---,0.12,VWS V14.01,2013-03-04 23:39:00,
2013-03-04 18:40:00,27.7,-99.9,-100.00,WNW,298,0.0,0.0,-999,0.00,,---,0.12,VWS V14.01,2013-03-04 23:40:00,
2013-03-04 18:42:00,27.7,-99.9,-100.00,WNW,298,0.0,0.0,-999,65.14,,---,0.12,VWS V14.01,2013-03-04 23:42:00,
2013-03-04 18:43:00,28.0,-99.9,-100.00,WNW,298,0.0,0.0,-999,0.00,,---,0.12,VWS V14.01,2013-03-04 23:43:00,
2013-03-04 18:44:00,28.0,-99.9,-100.00,WNW,298,0.0,0.0,-999,0.00,,---,0.12,VWS V14.01,2013-03-04 23:44:00,
2013-03-04 18:45:00,27.7,-99.9,-100.00,WNW,298,0.0,0.0,-999,0.00,,---,0.12,VWS V14.01,2013-03-04 23:45:00,
2013-03-04 18:47:00,27.7,-99.9,-100.00,WNW,298,0.0,0.0,-999,48.00,,---,0.12,VWS V14.01,2013-03-04 23:47:00,
2013-03-04 18:49:00,27.7,-99.9,-100.00,WNW,298,0.0,0.0,-999,36.95,,---,0.12,VWS V14.01,2013-03-04 23:49:00,
2013-03-04 18:50:00,27.2,-99.9,-100.00,WNW,298,0.0,0.0,-999,0.00,,---,0.12,VWS V14.01,2013-03-04 23:50:00,
2013-03-04 18:52:00,27.7,-99.9,-100.00,WNW,298,0.0,0.0,-999,0.00,,---,0.12,VWS V14.01,2013-03-04 23:52:00,
2013-03-04 18:54:00,27.7,-99.9,-100.00,WNW,298,0.0,0.0,-999,65.14,,---,0.12,VWS V14.01,2013-03-04 23:54:00,
2013-03-04 18:55:00,27.7,-99.9,-100.00,WNW,298,0.0,0.0,-999,0.00,,---,0.12,VWS V14.01,2013-03-04 23:55:00,
2013-03-04 18:57:00,27.5,-99.9,-100.00,WNW,298,0.0,0.0,-999,0.00,,---,0.12,VWS V14.01,2013-03-04 23:57:00,
2013-03-04 18:59:00,27.2,-99.9,-100.00,WNW,298,0.0,0.0,-999,0.00,,---,0.12,VWS V14.01,2013-03-04 23:59:00,
2013-03-04 19:00:00,27.2,-99.9,-100.00,WNW,298,0.0,0.0,-999,36.95,,---,0.12,VWS V14.01,2013-03-05 00:00:00,
2013-03-04 19:03:00,27.5,-99.9,-100.00,WNW,298,0.0,0.0,-999,23.82,,---,0.12,VWS V14.01,2013-03-05 00:03:00,
2013-03-04 19:04:00,26.9,-99.9,-100.00,NW,321,0.0,2.8,-999,0.00,,---,0.12,VWS V14.01,2013-03-05 00:04:00,
2013-03-04 19:05:00,27.7,-99.9,-100.00,NW,321,0.0,0.0,-999,48.00,,---,0.12,VWS V14.01,2013-03-05 00:05:00,
2013-03-04 19:08:00,27.7,-99.9,-100.00,NW,321,0.0,0.0,-999,0.00,,---,0.12,VWS V14.01,2013-03-05 00:08:00,
2013-03-04 19:09:00,27.2,-99.9,-100.00,NW,321,0.0,0.0,-999,0.00,,---,0.12,VWS V14.01,2013-03-05 00:09:00,
2013-03-04 19:10:00,26.9,-99.9,-100.00,NW,321,0.0,0.0,-999,2.56,,---,0.12,VWS V14.01,2013-03-05 00:10:00,
2013-03-04 19:13:00,26.9,-99.9,-100.00,NW,321,0.0,0.0,-999,0.00,,---,0.12,VWS V14.01,2013-03-05 00:13:00,
2013-03-04 19:14:00,26.9,-99.9,-100.00,NW,321,0.0,0.0,-999,0.00,,---,0.12,VWS V14.01,2013-03-05 00:14:00,
2013-03-04 19:15:00,26.9,-99.9,-100.00,NW,321,0.0,0.0,-999,0.00,,---,0.12,VWS V14.01,2013-03-05 00:15:00,
2013-03-04 19:18:00,26.2,-99.9,-100.00,NW,321,0.0,0.0,-999,65.14,,---,0.12,VWS V14.01,2013-03-05 00:18:00,
2013-03-04 19:19:00,26.4,-99.9,-100.00,NW,321,0.0,0.0,-999,0.00,,---,0.12,VWS V14.01,2013-03-05 00:19:00,
2013-03-04 19:20:00,26.2,-99.9,-100.00,NW,321,0.0,0.0,-999,0.00,,---,0.12,VWS V14.01,2013-03-05 00:20:00,
2013-03-04 19:23:00,26.2,-99.9,-100.00,NW,321,0.0,0.0,-999,48.00,,---,0.12,VWS V14.01,2013-03-05 00:23:00,
2013-03-04 19:24:00,26.4,-99.9,-100.00,NW,321,0.0,0.0,-999,0.00,,---,0.12,VWS V14.01,2013-03-05 00:24:00,
2013-03-04 19:25:00,26.2,-99.9,-100.00,NW,321,0.0,0.0,-999,0.00,,---,0.12,VWS V14.01,2013-03-05 00:25:00,
2013-03-04 19:28:00,26.2,-99.9,-100.00,NW,321,0.0,0.0,-999,2.56,,---,0.12,VWS V14.01,2013-03-05 00:28:00,
2013-03-04 19:29:00,26.2,-99.9,-100.00,NW,321,0.0,0.0,-999,0.00,,---,0.12,VWS V14.01,2013-03-05 00:29:00,
2013-03-04 19:30:00,26.2,-99.9,-100.00,NW,321,0.0,0.0,-999,36.95,,---,0.12,VWS V14.01,2013-03-05 00:30:00,
2013-03-04 19:33:00,26.0,-99.9,-100.00,NW,321,0.0,0.0,-999,35.85,,---,0.12,VWS V14.01,2013-03-05 00:33:00,
2013-03-04 19:34:00,25.7,-99.9,-100.00,NW,321,0.0,0.0,-999,35.85,,---,0.12,VWS V14.01,2013-03-05 00:34:00,
2013-03-04 19:35:00,25.7,-99.9,-100.00,NW,316,4.8,4.8,-999,48.00,,---,0.12,VWS V14.01,2013-03-05 00:35:00,
2013-03-04 19:36:00,25.7,-99.9,-100.00,NW,307,0.0,4.8,-999,0.00,,---,0.12,VWS V14.01,2013-03-05 00:36:00,
2013-03-04 19:38:00,26.0,-99.9,-100.00,NW,307,0.0,0.0,-999,0.00,,---,0.12,VWS V14.01,2013-03-05 00:38:00,
2013-03-04 19:39:00,26.0,-99.9,-100.00,NW,307,0.0,0.0,-999,34.25,,---,0.12,VWS V14.01,2013-03-05 00:39:00,
2013-03-04 19:40:00,26.0,-99.9,-100.00,NW,307,0.0,0.0,-999,0.00,,---,0.12,VWS V14.01,2013-03-05 00:40:00,
2013-03-04 19:41:00,25.4,-99.9,-100.00,NW,307,0.0,0.0,-999,0.00,,---,0.12,VWS V14.01,2013-03-05 00:41:00,
2013-03-04 19:43:00,26.2,-99.9,-100.00,NW,307,0.0,0.0,-999,0.00,,---,0.12,VWS V14.01,2013-03-05 00:43:00,
2013-03-04 19:44:00,25.2,-99.9,-100.00,NW,307,0.0,0.0,-999,0.00,,---,0.12,VWS V14.01,2013-03-05 00:44:00,
2013-03-04 19:46:00,25.4,-99.9,-100.00,NW,307,0.0,0.0,-999,34.25,,---,0.12,VWS V14.01,2013-03-05 00:46:00,
2013-03-04 19:48:00,26.0,-99.9,-100.00,NW,307,0.0,0.0,-999,0.00,,---,0.12,VWS V14.01,2013-03-05 00:48:00,
2013-03-04 19:49:00,25.2,-99.9,-100.00,NW,307,0.0,0.0,-999,0.00,,---,0.12,VWS V14.01,2013-03-05 00:49:00,
2013-03-04 19:51:00,25.4,-99.9,-100.00,NW,307,0.0,0.0,-999,34.25,,---,0.12,VWS V14.01,2013-03-05 00:51:00,
2013-03-04 19:53:00,25.2,-99.9,-100.00,NW,307,0.0,0.0,-999,48.00,,---,0.12,VWS V14.01,2013-03-05 00:53:00,
2013-03-04 19:54:00,25.7,-99.9,-100.00,NW,307,0.0,0.0,-999,0.00,,---,0.12,VWS V14.01,2013-03-05 00:54:00,
2013-03-04 19:56:00,25.4,-99.9,-100.00,NW,307,0.0,0.0,-999,0.00,,---,0.12,VWS V14.01,2013-03-05 00:56:00,
2013-03-04 19:58:00,25.2,-99.9,-100.00,NW,307,0.0,0.0,-999,0.96,,---,0.12,VWS V14.01,2013-03-05 00:58:00,
2013-03-04 19:59:00,25.7,-99.9,-100.00,NW,307,0.0,0.0,-999,0.00,,---,0.12,VWS V14.01,2013-03-05 00:59:00,
2013-03-04 20:01:00,25.2,-99.9,-100.00,NW,307,0.0,0.0,-999,0.00,,---,0.12,VWS V14.01,2013-03-05 01:01:00,
2013-03-04 20:03:00,25.2,-99.9,-100.00,NW,307,0.0,0.0,-999,34.25,,---,0.12,VWS V14.01,2013-03-05 01:03:00,
2013-03-04 20:04:00,24.7,-99.9,-100.00,NW,307,0.0,0.0,-999,0.00,,---,0.12,VWS V14.01,2013-03-05 01:04:00,
2013-03-04 20:06:00,24.9,-99.9,-100.00,NW,307,0.0,0.0,-999,0.00,,---,0.12,VWS V14.01,2013-03-05 01:06:00,
2013-03-04 20:07:00,24.9,-99.9,-100.00,NW,307,0.0,0.0,-999,0.00,,---,0.12,VWS V14.01,2013-03-05 01:07:00,
2013-03-04 20:08:00,24.9,-99.9,-100.00,NW,307,0.0,0.0,-999,0.00,,---,0.12,VWS V14.01,2013-03-05 01:08:00,
2013-03-04 20:10:00,24.4,-99.9,-100.00,NW,307,0.0,0.0,-999,34.25,,---,0.12,VWS V14.01,2013-03-05 01:10:00,
2013-03-04 20:11:00,24.7,-99.9,-100.00,NW,307,0.0,0.0,-999,45.44,,---,0.12,VWS V14.01,2013-03-05 01:11:00,
2013-03-04 20:12:00,24.7,-99.9,-100.00,NW,307,0.0,0.0,-999,0.00,,---,0.12,VWS V14.01,2013-03-05 01:12:00,
2013-03-04 20:13:00,24.7,-99.9,-100.00,NW,307,0.0,0.0,-999,0.00,,---,0.12,VWS V14.01,2013-03-05 01:13:00,
2013-03-04 20:15:00,23.9,-99.9,-100.00,NW,307,0.0,0.0,-999,0.00,,---,0.12,VWS V14.01,2013-03-05 01:15:00,
2013-03-04 20:16:00,23.9,-99.9,-100.00,NW,307,0.0,0.0,-999,0.00,,---,0.12,VWS V14.01,2013-03-05 01:16:00,
2013-03-04 20:17:00,23.9,-99.9,-100.00,NW,307,0.0,0.0,-999,45.44,,---,0.12,VWS V14.01,2013-03-05 01:17:00,
2013-03-04 20:18:00,24.4,-99.9,-100.00,NW,307,0.0,0.0,-999,0.00,,---,0.12,VWS V14.01,2013-03-05 01:18:00,
2013-03-04 20:20:00,24.7,-99.9,-100.00,NW,307,0.0,0.0,-999,0.00,,---,0.12,VWS V14.01,2013-03-05 01:20:00,
2013-03-04 20:21:00,24.2,-99.9,-100.00,NW,307,0.0,0.0,-999,34.25,,---,0.12,VWS V14.01,2013-03-05 01:21:00,
2013-03-04 20:22:00,24.2,-99.9,-100.00,NW,307,0.0,0.0,-999,0.00,,---,0.12,VWS V14.01,2013-03-05 01:22:00,
2013-03-04 20:23:00,24.4,-99.9,-100.00,NW,307,0.0,0.0,-999,0.00,,---,0.12,VWS V14.01,2013-03-05 01:23:00,
2013-03-04 20:25:00,24.7,-99.9,-100.00,NW,307,0.0,0.0,-999,0.00,,---,0.12,VWS V14.01,2013-03-05 01:25:00,
2013-03-04 20:26:00,24.4,-99.9,-100.00,NW,307,0.0,0.0,-999,0.00,,---,0.12,VWS V14.01,2013-03-05 01:26:00,
2013-03-04 20:27:00,24.2,-99.9,-100.00,NW,307,0.0,0.0,-999,0.00,,---,0.12,VWS V14.01,2013-03-05 01:27:00,
2013-03-04 20:28:00,24.7,-99.9,-100.00,NW,307,0.0,0.0,-999,0.00,,---,0.12,VWS V14.01,2013-03-05 01:28:00,
2013-03-04 20:30:00,24.2,-99.9,-100.00,NW,307,0.0,0.0,-999,0.00,,---,0.12,VWS V14.01,2013-03-05 01:30:00,
2013-03-04 20:31:00,24.2,-99.9,-100.00,NW,307,0.0,0.0,-999,0.00,,---,0.12,VWS V14.01,2013-03-05 01:31:00,
2013-03-04 20:32:00,24.2,-99.9,-100.00,NW,307,0.0,0.0,-999,0.00,,---,0.12,VWS V14.01,2013-03-05 01:32:00,
2013-03-04 20:34:00,24.2,-99.9,-100.00,NW,307,0.0,0.0,-999,0.00,,---,0.12,VWS V14.01,2013-03-05 01:34:00,
2013-03-04 20:35:00,23.9,-99.9,-100.00,NW,307,0.0,0.0,-999,0.00,,---,0.12,VWS V14.01,2013-03-05 01:35:00,
2013-03-04 20:36:00,23.7,-99.9,-100.00,NW,307,0.0,0.0,-999,0.00,,---,0.12,VWS V14.01,2013-03-05 01:36:00,
2013-03-04 20:38:00,23.4,-99.9,-100.00,NW,307,0.0,0.0,-999,0.00,,---,0.12,VWS V14.01,2013-03-05 01:38:00,
2013-03-04 20:39:00,23.1,-99.9,-100.00,NW,307,0.0,0.0,-999,0.00,,---,0.12,VWS V14.01,2013-03-05 01:39:00,
2013-03-04 20:40:00,23.1,-99.9,-100.00,NW,307,0.0,0.0,-999,0.00,,---,0.12,VWS V14.01,2013-03-05 01:40:00,
2013-03-04 20:41:00,23.7,-99.9,-100.00,NW,307,0.0,0.0,-999,0.00,,---,0.12,VWS V14.01,2013-03-05 01:41:00,
2013-03-04 20:43:00,23.4,-99.9,-100.00,NW,307,0.0,0.0,-999,0.00,,---,0.12,VWS V14.01,2013-03-05 01:43:00,
2013-03-04 20:44:00,23.7,-99.9,-100.00,NW,307,0.0,0.0,-999,0.00,,---,0.12,VWS V14.01,2013-03-05 01:44:00,
2013-03-04 20:45:00,23.1,-99.9,-100.00,NW,307,0.0,0.0,-999,34.25,,---,0.12,VWS V14.01,2013-03-05 01:45:00,
2013-03-04 20:46:00,23.7,-99.9,-100.00,NW,307,0.0,0.0,-999,78.26,,---,0.12,VWS V14.01,2013-03-05 01:46:00,
2013-03-04 20:48:00,23.4,-99.9,-100.00,NW,307,0.0,0.0,-999,36.95,,---,0.12,VWS V14.01,2013-03-05 01:48:00,
2013-03-04 20:49:00,23.4,-99.9,-100.00,NW,307,0.0,0.0,-999,0.00,,---,0.12,VWS V14.01,2013-03-05 01:49:00,
2013-03-04 20:50:00,23.7,-99.9,-100.00,NW,307,0.0,0.0,-999,0.00,,---,0.12,VWS V14.01,2013-03-05 01:50:00,
2013-03-04 20:51:00,23.1,-99.9,-100.00,NW,307,0.0,0.0,-999,0.00,,---,0.12,VWS V14.01,2013-03-05 01:51:00,
2013-03-04 20:53:00,23.1,-99.9,-100.00,NW,307,0.0,0.0,-999,47.04,,---,0.12,VWS V14.01,2013-03-05 01:53:00,
2013-03-04 20:54:00,23.4,-99.9,-100.00,NW,307,0.0,0.0,-999,0.00,,---,0.12,VWS V14.01,2013-03-05 01:54:00,
2013-03-04 20:55:00,22.9,-99.9,-100.00,NW,307,0.0,0.0,-999,0.00,,---,0.12,VWS V14.01,2013-03-05 01:55:00,
2013-03-04 20:56:00,22.9,-99.9,-100.00,NW,307,0.0,0.0,-999,0.00,,---,0.12,VWS V14.01,2013-03-05 01:56:00,
2013-03-04 20:58:00,22.9,-99.9,-100.00,NW,307,0.0,0.0,-999,0.00,,---,0.12,VWS V14.01,2013-03-05 01:58:00,
2013-03-04 20:59:00,22.6,-99.9,-100.00,NW,307,0.0,0.0,-999,0.00,,---,0.12,VWS V14.01,2013-03-05 01:59:00,
2013-03-04 21:01:00,22.3,-99.9,-100.00,NW,307,0.0,0.0,-999,40.61,,---,0.12,VWS V14.01,2013-03-05 02:01:00,
2013-03-04 21:03:00,22.1,-99.9,-100.00,NW,307,0.0,0.0,-999,0.00,,---,0.12,VWS V14.01,2013-03-05 02:03:00,
2013-03-04 21:04:00,22.6,-99.9,-100.00,NW,307,0.0,0.0,-999,0.00,,---,0.12,VWS V14.01,2013-03-05 02:04:00,
2013-03-04 21:06:00,22.1,-99.9,-100.00,NW,307,0.0,0.0,-999,0.00,,---,0.12,VWS V14.01,2013-03-05 02:06:00,
2013-03-04 21:08:00,22.3,-99.9,-100.00,NW,307,0.0,0.0,-999,0.00,,---,0.12,VWS V14.01,2013-03-05 02:08:00,
2013-03-04 21:09:00,22.3,-99.9,-100.00,NW,307,0.0,0.0,-999,0.00,,---,0.12,VWS V14.01,2013-03-05 02:09:00,
2013-03-04 21:11:00,22.1,-99.9,-100.00,NW,307,0.0,0.0,-999,0.00,,---,0.12,VWS V14.01,2013-03-05 02:11:00,
2013-03-04 21:12:00,22.3,-99.9,-100.00,NW,307,0.0,0.0,-999,36.95,,---,0.12,VWS V14.01,2013-03-05 02:12:00,
2013-03-04 21:13:00,22.1,-99.9,-100.00,NW,307,0.0,0.0,-999,0.00,,---,0.12,VWS V14.01,2013-03-05 02:13:00,
2013-03-04 21:14:00,21.8,-99.9,-100.00,NW,307,0.0,0.0,-999,0.00,,---,0.12,VWS V14.01,2013-03-05 02:14:00,
2013-03-04 21:16:00,21.8,-99.9,-100.00,NW,307,0.0,0.0,-999,0.00,,---,0.12,VWS V14.01,2013-03-05 02:16:00,
2013-03-04 21:17:00,21.5,-99.9,-100.00,NW,307,0.0,0.0,-999,33.92,,---,0.12,VWS V14.01,2013-03-05 02:17:00,
2013-03-04 21:18:00,21.8,-99.9,-100.00,NW,307,0.0,0.0,-999,0.00,,---,0.12,VWS V14.01,2013-03-05 02:18:00,
2013-03-04 21:19:00,21.5,-99.9,-100.00,NW,307,0.0,0.0,-999,0.00,,---,0.12,VWS V14.01,2013-03-05 02:19:00,
2013-03-04 21:21:00,21.3,-99.9,-100.00,NW,307,0.0,0.0,-999,0.00,,---,0.12,VWS V14.01,2013-03-05 02:21:00,
2013-03-04 21:22:00,21.5,-99.9,-100.00,NW,307,0.0,0.0,-999,0.00,,---,0.12,VWS V14.01,2013-03-05 02:22:00,
2013-03-04 21:23:00,21.5,-99.9,-100.00,NW,307,0.0,0.0,-999,0.00,,---,0.12,VWS V14.01,2013-03-05 02:23:00,
2013-03-04 21:25:00,21.3,-99.9,-100.00,NW,307,0.0,0.0,-999,0.00,,---,0.12,VWS V14.01,2013-03-05 02:25:00,
2013-03-04 21:26:00,21.5,-99.9,-100.00,NW,307,0.0,0.0,-999,0.00,,---,0.12,VWS V14.01,2013-03-05 02:26:00,
2013-03-04 21:27:00,21.8,-99.9,-100.00,NW,307,0.0,0.0,-999,0.00,,---,0.12,VWS V14.01,2013-03-05 02:27:00,
2013-03-04 21:28:00,21.5,-99.9,-100.00,NW,307,0.0,0.0,-999,0.00,,---,0.12,VWS V14.01,2013-03-05 02:28:00,
2013-03-04 21:30:00,21.0,-99.9,-100.00,NW,307,0.0,0.0,-999,0.00,,---,0.12,VWS V14.01,2013-03-05 02:30:00,
2013-03-04 21:31:00,21.2,-99.9,-100.00,NW,307,0.0,0.0,-999,0.00,,---,0.12,VWS V14.01,2013-03-05 02:31:00,
2013-03-04 21:32:00,21.3,-99.9,-100.00,NW,307,0.0,0.0,-999,0.00,,---,0.12,VWS V14.01,2013-03-05 02:32:00,
2013-03-04 21:33:00,21.4,-99.9,-100.00,NW,307,0.0,0.0,-999,0.00,,---,0.12,VWS V14.01,2013-03-05 02:33:00,
2013-03-04 21:35:00,21.4,-99.9,-100.00,NW,307,0.0,0.0,-999,0.00,,---,0.12,VWS V14.01,2013-03-05 02:35:00,
2013-03-04 21:36:00,21.5,-99.9,-100.00,NW,307,0.0,0.0,-999,0.00,,---,0.12,VWS V14.01,2013-03-05 02:36:00,
2013-03-04 21:37:00,21.4,-99.9,-100.00,NW,307,0.0,0.0,-999,0.00,,---,0.12,VWS V14.01,2013-03-05 02:37:00,
2013-03-04 21:38:00,21.2,-99.9,-100.00,NW,307,0.0,0.0,-999,0.00,,---,0.12,VWS V14.01,2013-03-05 02:38:00,
2013-03-04 21:40:00,21.2,-99.9,-100.00,NW,307,0.0,0.0,-999,47.04,,---,0.12,VWS V14.01,2013-03-05 02:40:00,
2013-03-04 21:41:00,21.3,-99.9,-100.00,NW,307,0.0,0.0,-999,36.95,,---,0.12,VWS V14.01,2013-03-05 02:41:00,
2013-03-04 21:42:00,21.1,-99.9,-100.00,NW,307,0.0,0.0,-999,0.00,,---,0.12,VWS V14.01,2013-03-05 02:42:00,
2013-03-04 21:43:00,21.6,-99.9,-100.00,NW,307,0.0,0.0,-999,0.00,,---,0.12,VWS V14.01,2013-03-05 02:43:00,
2013-03-04 21:45:00,21.3,-99.9,-100.00,NW,307,0.0,0.0,-999,0.00,,---,0.12,VWS V14.01,2013-03-05 02:45:00,
2013-03-04 21:46:00,21.0,-99.9,-100.00,NW,307,0.0,0.0,-999,47.04,,---,0.12,VWS V14.01,2013-03-05 02:46:00,
2013-03-04 21:47:00,21.5,-99.9,-100.00,NW,307,0.0,0.0,-999,36.95,,---,0.12,VWS V14.01,2013-03-05 02:47:00,
2013-03-04 21:48:00,21.5,-99.9,-100.00,NW,307,0.0,0.0,-999,0.00,,---,0.12,VWS V14.01,2013-03-05 02:48:00,
2013-03-04 21:50:00,21.5,-99.9,-100.00,NW,307,0.0,0.0,-999,24.78,,---,0.12,VWS V14.01,2013-03-05 02:50:00,
2013-03-04 21:51:00,21.3,-99.9,-100.00,NW,307,0.0,0.0,-999,0.00,,---,0.12,VWS V14.01,2013-03-05 02:51:00,
2013-03-04 21:52:00,21.7,-99.9,-100.00,NW,307,0.0,0.0,-999,47.04,,---,0.12,VWS V14.01,2013-03-05 02:52:00,
2013-03-04 21:53:00,21.5,-99.9,-100.00,NW,307,0.0,0.0,-999,0.00,,---,0.12,VWS V14.01,2013-03-05 02:53:00,
2013-03-04 21:55:00,21.7,-99.9,-100.00,NW,307,0.0,0.0,-999,0.00,,---,0.12,VWS V14.01,2013-03-05 02:55:00,
2013-03-04 21:57:00,22.1,-99.9,-100.00,NW,307,0.0,0.0,-999,0.00,,---,0.12,VWS V14.01,2013-03-05 02:57:00,
2013-03-04 21:58:00,21.3,-99.9,-100.00,NW,307,0.0,0.0,-999,0.00,,---,0.12,VWS V14.01,2013-03-05 02:58:00,
2013-03-04 22:00:00,21.5,-99.9,-100.00,NW,307,0.0,0.0,-999,0.00,,---,0.12,VWS V14.01,2013-03-05 03:00:00,
2013-03-04 22:02:00,21.5,-99.9,-100.00,NW,307,0.0,0.0,-999,24.78,,---,0.12,VWS V14.01,2013-03-05 03:02:00,
2013-03-04 22:03:00,21.5,-99.9,-100.00,NW,307,0.0,0.0,-999,0.00,,---,0.12,VWS V14.01,2013-03-05 03:03:00,
2013-03-04 22:05:00,21.3,-99.9,-100.00,NW,307,0.0,0.0,-999,36.95,,---,0.12,VWS V14.01,2013-03-05 03:05:00,
2013-03-04 22:07:00,21.3,-99.9,-100.00,NW,307,0.0,0.0,-999,34.25,,---,0.12,VWS V14.01,2013-03-05 03:07:00,
2013-03-04 22:08:00,21.3,-99.9,-100.00,NW,307,0.0,0.0,-999,34.25,,---,0.12,VWS V14.01,2013-03-05 03:08:00,
2013-03-04 22:10:00,21.3,-99.9,-100.00,NW,307,0.0,0.0,-999,47.04,,---,0.12,VWS V14.01,2013-03-05 03:10:00,
2013-03-04 22:12:00,21.5,-99.9,-100.00,NW,307,0.0,0.0,-999,0.00,,---,0.12,VWS V14.01,2013-03-05 03:12:00,
2013-03-04 22:13:00,21.5,-99.9,-100.00,NW,307,0.0,0.0,-999,0.00,,---,0.12,VWS V14.01,2013-03-05 03:13:00,
2013-03-04 22:14:00,21.3,-99.9,-100.00,NW,307,0.0,0.0,-999,34.25,,---,0.12,VWS V14.01,2013-03-05 03:14:00,
2013-03-04 22:15:00,21.0,-99.9,-100.00,NW,307,0.0,0.0,-999,0.00,,---,0.12,VWS V14.01,2013-03-05 03:15:00,
2013-03-04 22:18:00,20.5,-99.9,-100.00,NW,307,0.0,0.0,-999,0.00,,---,0.12,VWS V14.01,2013-03-05 03:18:00,
2013-03-04 22:19:00,20.8,-99.9,-100.00,NW,307,0.0,0.0,-999,0.00,,---,0.12,VWS V14.01,2013-03-05 03:19:00,
2013-03-04 22:20:00,20.5,-99.9,-100.00,NW,307,0.0,0.0,-999,34.25,,---,0.12,VWS V14.01,2013-03-05 03:20:00,
2013-03-04 22:23:00,20.3,-99.9,-100.00,NW,307,0.0,0.0,-999,0.00,,---,0.12,VWS V14.01,2013-03-05 03:23:00,
2013-03-04 22:24:00,20.3,-99.9,-100.00,NW,307,0.0,0.0,-999,0.00,,---,0.12,VWS V14.01,2013-03-05 03:24:00,
2013-03-04 22:25:00,20.0,-99.9,-100.00,NW,307,0.0,0.0,-999,0.00,,---,0.12,VWS V14.01,2013-03-05 03:25:00,
2013-03-04 22:28:00,20.0,-99.9,-100.00,NW,307,0.0,0.0,-999,47.04,,---,0.12,VWS V14.01,2013-03-05 03:28:00,
2013-03-04 22:29:00,19.5,-99.9,-100.00,NW,307,0.0,0.0,-999,36.95,,---,0.12,VWS V14.01,2013-03-05 03:29:00,
2013-03-04 22:30:00,19.7,-99.9,-100.00,NW,307,0.0,0.0,-999,0.00,,---,0.12,VWS V14.01,2013-03-05 03:30:00,
2013-03-04 22:33:00,19.7,-99.9,-100.00,NW,307,0.0,0.0,-999,0.00,,---,0.12,VWS V14.01,2013-03-05 03:33:00,
2013-03-04 22:34:00,19.7,-99.9,-100.00,NW,307,0.0,0.0,-999,47.04,,---,0.12,VWS V14.01,2013-03-05 03:34:00,
2013-03-04 22:35:00,19.7,-99.9,-100.00,NW,307,0.0,0.0,-999,0.00,,---,0.12,VWS V14.01,2013-03-05 03:35:00,
2013-03-04 22:38:00,19.2,-99.9,-100.00,NW,307,0.0,0.0,-999,34.25,,---,0.12,VWS V14.01,2013-03-05 03:38:00,
2013-03-04 22:39:00,19.7,-99.9,-100.00,NW,307,0.0,0.0,-999,0.00,,---,0.12,VWS V14.01,2013-03-05 03:39:00,
2013-03-04 22:40:00,19.5,-99.9,-100.00,NW,307,0.0,0.0,-999,0.00,,---,0.12,VWS V14.01,2013-03-05 03:40:00,
2013-03-04 22:43:00,19.7,-99.9,-100.00,NW,307,0.0,0.0,-999,0.00,,---,0.12,VWS V14.01,2013-03-05 03:43:00,
2013-03-04 22:44:00,19.5,-99.9,-100.00,NW,307,0.0,0.0,-999,34.25,,---,0.12,VWS V14.01,2013-03-05 03:44:00,
2013-03-04 22:45:00,19.7,-99.9,-100.00,NW,307,0.0,0.0,-999,0.00,,---,0.12,VWS V14.01,2013-03-05 03:45:00,
2013-03-04 22:48:00,19.0,-99.9,-100.00,NW,307,0.0,0.0,-999,0.00,,---,0.12,VWS V14.01,2013-03-05 03:48:00,
2013-03-04 22:49:00,19.2,-99.9,-100.00,NW,307,0.0,0.0,-999,0.00,,---,0.12,VWS V14.01,2013-03-05 03:49:00,
2013-03-04 22:51:00,18.7,-99.9,-100.00,NW,307,0.0,0.0,-999,0.00,,---,0.12,VWS V14.01,2013-03-05 03:51:00,
2013-03-04 22:53:00,19.0,-99.9,-100.00,NW,307,0.0,0.0,-999,0.00,,---,0.12,VWS V14.01,2013-03-05 03:53:00,
2013-03-04 22:54:00,19.0,-99.9,-100.00,NW,307,0.0,0.0,-999,0.00,,---,0.12,VWS V14.01,2013-03-05 03:54:00,
2013-03-04 22:56:00,18.7,-99.9,-100.00,NW,307,0.0,0.0,-999,34.25,,---,0.12,VWS V14.01,2013-03-05 03:56:00,
2013-03-04 22:58:00,18.7,-99.9,-100.00,NW,307,0.0,0.0,-999,0.00,,---,0.12,VWS V14.01,2013-03-05 03:58:00,
2013-03-04 22:59:00,19.0,-99.9,-100.00,NW,307,0.0,0.0,-999,40.61,,---,0.12,VWS V14.01,2013-03-05 03:59:00,
2013-03-04 23:01:00,19.0,-99.9,-100.00,NW,307,0.0,0.0,-999,0.00,,---,0.12,VWS V14.01,2013-03-05 04:01:00,